FW6434 Weather Reports


Display with metric or nautical units.
time (UTC)temp
F
wind
direction
speed
MPH
gust
MPH
rain 1hr
in
rain 24hr
in
rain mn
in
humidity
%
barometer
mb
20260903021704 58 170 0.0 3.0 0.00 0.00 0.00 97 1018.8
20260903021219 58 196 0.0 2.0 0.00 0.00 0.00 97 1018.5
20260903020943 58 196 0.0 2.0 0.00 0.00 0.00 97 1018.5
20260903020924 58 203 0.0 2.0 0.00 0.00 0.00 97 1018.9
20260903020614 58 196 0.0 1.0 0.00 0.00 0.00 98 1018.8
20260903020514 58 193 0.0 1.0 0.00 0.00 0.00 98 1018.5
20260903020414 58 196 0.0 1.0 0.00 0.00 0.00 98 1018.8
20260903020314 58 193 0.0 1.0 0.00 0.00 0.00 98 1018.5
20260903020214 58 195 0.0 1.0 0.00 0.00 0.00 98 1018.9
20260903020148 58 196 0.0 1.0 0.00 0.00 0.00 98 1018.5
20260903020134 58 191 0.0 1.0 0.00 0.00 0.00 98 1018.9
20260903020119 58 194 0.0 1.0 0.00 0.00 0.00 98 1018.9
20260903015834 58 196 0.0 1.0 0.00 0.00 0.00 98 1018.7
20260903015513 58 212 1.0 1.0 0.00 0.00 0.00 98 1018.8
20260903015414 57 198 0.0 0.0 0.00 0.00 0.00 98 1018.8
20260903015314 57 196 0.0 0.0 0.00 0.00 0.00 98 1019.1
20260903015214 57 198 0.0 0.0 0.00 0.00 0.00 98 1018.9
20260903015115 57 200 0.0 0.0 0.00 0.00 0.00 99 1018.9
20260903015014 57 204 0.0 0.0 0.00 0.00 0.00 98 1018.9
20260903014931 58 198 0.0 1.0 0.00 0.00 0.00 98 1019.1
20260903014924 57 196 0.0 0.0 0.00 0.00 0.00 98 1019.0
20260903014908 57 196 0.0 0.0 0.00 0.00 0.00 98 1019.1
20260903014844 57 195 0.0 0.0 0.00 0.00 0.00 98 1018.8
20260903014816 57 194 0.0 0.0 0.00 0.00 0.00 98 1019.0
20260903014800 58 196 0.0 0.0 0.00 0.00 0.00 98 1019.0
20260903014316 58 200 0.0 0.0 0.00 0.00 0.00 98 1018.9
20260903014254 58 196 0.0 1.0 0.00 0.00 0.00 98 1019.1
20260903014238 58 194 0.0 1.0 0.00 0.00 0.00 98 1018.9
20260903014222 58 194 0.0 1.0 0.00 0.00 0.00 98 1019.0
20260903014205 58 184 0.0 1.0 0.00 0.00 0.00 98 1018.8
20260903013925 58 198 0.0 1.0 0.00 0.00 0.00 98 1019.1
20260903013615 58 197 0.0 1.0 0.00 0.00 0.00 98 1019.1
20260903013550 58 196 0.0 1.0 0.00 0.00 0.00 98 1019.0
20260903013534 58 196 0.0 1.0 0.00 0.00 0.00 98 1019.0
20260903013214 58 199 0.0 1.0 0.00 0.00 0.00 98 1019.1
20260903013114 58 196 0.0 1.0 0.00 0.00 0.00 99 1019.1
20260903013040 58 195 0.0 0.0 0.00 0.00 0.00 98 1018.7
20260903013030 58 192 0.0 1.0 0.00 0.00 0.00 98 1019.2
20260903013015 57 196 0.0 1.0 0.00 0.00 0.00 98 1019.1
20260903012958 57 197 0.0 1.0 0.00 0.00 0.00 98 1018.9
20260903012726 58 211 0.0 1.0 0.00 0.00 0.00 98 1019.0
20260903012709 58 160 0.0 1.0 0.00 0.00 0.00 98 1019.1
20260903012654 58 187 0.0 0.0 0.00 0.00 0.00 98 1019.1
20260903012638 58 195 0.0 0.0 0.00 0.00 0.00 98 1019.1
20260903012623 58 195 0.0 0.0 0.00 0.00 0.00 98 1018.7
20260903012606 58 195 0.0 0.0 0.00 0.00 0.00 98 1018.7
20260903012131 58 195 0.0 0.0 0.00 0.00 0.00 98 1018.7
20260903012115 58 195 0.0 0.0 0.00 0.00 0.00 98 1018.7
20260903012059 58 195 0.0 0.0 0.00 0.00 0.00 98 1018.7
20260903011836 58 195 0.0 0.0 0.00 0.00 0.00 98 1018.7
20260903011812 58 195 0.0 0.0 0.00 0.00 0.00 98 1018.8
20260903011756 58 195 0.0 0.0 0.00 0.00 0.00 98 1018.5
20260903011741 58 195 0.0 0.0 0.00 0.00 0.00 98 1018.7
20260903011725 58 195 0.0 0.0 0.00 0.00 0.00 98 1018.8
20260903011711 58 195 0.0 0.0 0.00 0.00 0.00 98 1018.4
20260903011647 58 195 0.0 0.0 0.00 0.00 0.00 98 1018.4
20260903011411 58 195 0.0 0.0 0.00 0.00 0.00 98 1018.7
20260903011356 58 195 0.0 0.0 0.00 0.00 0.00 98 1018.7
20260903011340 58 195 0.0 0.0 0.00 0.00 0.00 98 1019.0
20260903011321 58 195 0.0 0.0 0.00 0.00 0.00 98 1018.5
20260903011055 58 195 0.0 0.0 0.00 0.00 0.00 98 1018.7
20260903010335 58 195 0.0 0.0 0.00 0.00 0.00 98 1018.4
20260903010054 58 195 0.0 0.0 0.00 0.00 0.00 98 1018.4
20260903010045 58 195 0.0 0.0 0.00 0.00 0.00 98 1018.5
20260903010031 58 195 0.0 0.0 0.00 0.00 0.00 98 1018.9
20260903010015 58 195 0.0 0.0 0.00 0.00 0.00 98 1018.8
20260903005951 58 195 0.0 0.0 0.00 0.00 0.00 98 1018.8
20260903005716 58 195 0.0 0.0 0.00 0.00 0.00 98 1018.5
20260903005700 58 195 0.0 0.0 0.00 0.00 0.00 98 1018.5
20260903005423 58 195 0.0 0.0 0.00 0.00 0.00 98 1018.4
20260903005114 58 195 0.0 0.0 0.00 0.00 0.00 98 1018.5
20260903005014 58 195 0.0 0.0 0.00 0.00 0.00 98 1018.4
20260903004914 58 195 0.0 0.0 0.00 0.00 0.00 98 1018.7
20260903004814 58 195 0.0 0.0 0.00 0.00 0.00 98 1018.8
20260903004713 58 195 0.0 0.0 0.00 0.00 0.00 98 1018.7
20260903004405 58 195 0.0 0.0 0.00 0.00 0.00 98 1018.4
20260903004305 58 195 0.0 0.0 0.00 0.00 0.00 98 1018.7
20260903004213 58 195 0.0 0.0 0.00 0.00 0.00 98 1018.7
20260903004205 58 195 0.0 0.0 0.00 0.00 0.00 98 1018.5
20260903004105 58 195 0.0 0.0 0.00 0.00 0.00 98 1018.5
20260903004006 58 195 0.0 0.0 0.00 0.00 0.00 98 1018.3
20260903003906 58 195 0.0 0.0 0.00 0.00 0.00 98 1018.7
20260903003750 58 195 0.0 0.0 0.00 0.00 0.00 98 1018.5
20260903003743 58 195 0.0 0.0 0.00 0.00 0.00 98 1018.4
20260903003728 58 195 0.0 0.0 0.00 0.00 0.00 98 1018.7
20260903003405 58 195 0.0 0.0 0.00 0.00 0.00 98 1018.4
20260903003307 58 195 0.0 0.0 0.00 0.00 0.00 98 1018.7
20260903003213 58 195 0.0 0.0 0.00 0.00 0.00 98 1018.7
20260903003205 58 195 0.0 0.0 0.00 0.00 0.00 98 1018.9
20260903003141 58 195 0.0 0.0 0.00 0.00 0.00 98 1018.8
20260903003133 58 195 0.0 0.0 0.00 0.00 0.00 98 1018.7
20260903003117 58 195 0.0 0.0 0.00 0.00 0.00 98 1018.5
20260903003101 58 195 0.0 0.0 0.00 0.00 0.00 98 1018.7
20260903003029 58 195 0.0 0.0 0.00 0.00 0.00 98 1018.9
20260903003022 58 195 0.0 0.0 0.00 0.00 0.00 98 1018.8
20260903002746 58 195 0.0 0.0 0.00 0.00 0.00 98 1018.5
20260903002730 58 195 0.0 0.0 0.00 0.00 0.00 98 1018.5
20260903002454 58 195 0.0 0.0 0.00 0.00 0.00 98 1018.8
20260903002447 58 195 0.0 0.0 0.00 0.00 0.00 98 1018.7
20260903002432 58 195 0.0 0.0 0.00 0.00 0.00 98 1018.7
20260903001936 58 195 0.0 0.0 0.00 0.00 0.00 98 1018.8
20260903001705 58 195 0.0 0.0 0.00 0.00 0.00 98 1018.8
20260903001605 58 195 0.0 0.0 0.00 0.00 0.00 98 1018.8
20260903001506 58 195 0.0 0.0 0.00 0.00 0.00 98 1018.8
20260903001405 58 195 0.0 0.0 0.00 0.00 0.00 98 1019.0
20260903001305 58 195 0.0 0.0 0.00 0.00 0.00 98 1018.7
20260903001213 58 195 0.0 0.0 0.00 0.00 0.00 98 1018.7
20260903001205 58 195 0.0 0.0 0.00 0.00 0.00 98 1018.7
20260903001105 58 195 0.0 0.0 0.00 0.00 0.00 98 1018.9
20260903001005 58 195 0.0 0.0 0.00 0.00 0.00 98 1018.7
20260903000905 58 195 0.0 0.0 0.00 0.00 0.00 98 1018.8
20260903000805 58 195 0.0 0.0 0.00 0.00 0.00 97 1018.7
20260903000713 58 195 0.0 0.0 0.00 0.00 0.00 97 1018.7
20260903000705 58 195 0.0 0.0 0.00 0.00 0.00 97 1018.9
20260903000642 58 195 0.0 0.0 0.00 0.00 0.00 97 1019.0
20260903000627 58 195 0.0 0.0 0.00 0.00 0.00 97 1018.8
20260903000611 58 195 0.0 0.0 0.00 0.00 0.00 97 1018.8
20260903000540 58 202 0.0 0.0 0.00 0.00 0.00 97 1018.8
20260903000520 58 195 0.0 0.0 0.00 0.00 0.00 97 1018.5
20260903000025 58 195 0.0 0.0 0.00 0.00 0.00 97 1018.8
20260902235713 58 195 0.0 0.0 0.00 0.00 0.00 97 1018.9
20260902235707 58 195 0.0 0.0 0.00 0.00 0.00 97 1019.0
20260902235606 58 195 0.0 0.0 0.00 0.00 0.00 97 1019.0
20260902235541 58 195 0.0 0.0 0.00 0.00 0.00 97 1018.8
20260902235526 58 195 0.0 0.0 0.00 0.00 0.00 97 1018.9
20260902235213 58 195 0.0 0.0 0.00 0.00 0.00 97 1019.0
20260902235205 58 195 0.0 0.0 0.00 0.00 0.00 97 1018.8
20260902235105 58 195 0.0 0.0 0.00 0.00 0.00 97 1019.1
20260902235004 58 195 0.0 0.0 0.00 0.00 0.00 97 1019.1
20260902234936 58 195 0.0 0.0 0.00 0.00 0.00 97 1019.0
20260902234900 58 195 0.0 0.0 0.00 0.00 0.00 97 1019.0
20260902234854 58 195 0.0 0.0 0.00 0.00 0.00 97 1018.8
20260902234838 58 195 0.0 0.0 0.00 0.00 0.00 97 1018.9
20260902234822 58 195 0.0 0.0 0.00 0.00 0.00 97 1019.1
20260902234530 58 195 0.0 0.0 0.00 0.00 0.00 97 1019.1
20260902234523 58 195 0.0 0.0 0.00 0.00 0.00 97 1018.9
20260902234026 58 195 0.0 0.0 0.00 0.00 0.00 97 1018.9
20260902233953 58 195 0.0 0.0 0.00 0.00 0.00 97 1019.0
20260902233947 58 195 0.0 0.0 0.00 0.00 0.00 97 1019.0
20260902233405 58 195 0.0 0.0 0.00 0.00 0.00 97 1018.7
20260902233353 58 202 0.0 0.0 0.00 0.00 0.00 98 1018.9
20260902233332 58 195 0.0 0.0 0.00 0.00 0.00 97 1018.9
20260902233326 58 195 0.0 0.0 0.00 0.00 0.00 98 1018.7
20260902233309 58 195 0.0 0.0 0.00 0.00 0.00 97 1018.8
20260902233043 58 195 0.0 0.0 0.00 0.00 0.00 98 1019.0
20260902233027 58 195 0.0 0.0 0.00 0.00 0.00 98 1019.0
20260902233012 58 202 0.0 0.0 0.00 0.00 0.00 98 1018.8
20260902232953 58 195 0.0 0.0 0.00 0.00 0.00 98 1018.8
20260902232946 58 195 0.0 0.0 0.00 0.00 0.00 98 1018.9
20260902232931 58 195 0.0 0.0 0.00 0.00 0.00 98 1019.1
20260902232914 58 202 0.0 0.0 0.00 0.00 0.00 98 1019.0
20260902232205 58 202 0.0 0.0 0.00 0.00 0.00 98 1018.9
20260902232105 58 202 0.0 0.0 0.00 0.00 0.00 98 1018.7
20260902232005 58 198 0.0 0.0 0.00 0.00 0.00 98 1019.0
20260902231907 58 198 0.0 0.0 0.00 0.00 0.00 98 1019.0
20260902231851 58 198 0.0 0.0 0.00 0.00 0.00 98 1019.1
20260902231833 58 202 0.0 0.0 0.00 0.00 0.00 98 1019.1
20260902231827 58 202 0.0 0.0 0.00 0.00 0.00 98 1019.0
20260902231454 58 195 0.0 0.0 0.00 0.00 0.00 98 1019.0
20260902231354 58 195 0.0 0.0 0.00 0.00 0.00 98 1019.1
20260902231253 58 195 0.0 0.0 0.00 0.00 0.00 98 1019.0
20260902231213 58 195 0.0 0.0 0.00 0.00 0.00 98 1019.0
20260902231153 58 195 0.0 0.0 0.00 0.00 0.00 98 1019.0
20260902231054 58 195 0.0 0.0 0.00 0.00 0.00 98 1018.9
20260902231026 57 195 0.0 0.0 0.00 0.00 0.00 98 1019.1
20260902231017 58 195 0.0 0.0 0.00 0.00 0.00 98 1019.1
20260902231002 58 195 0.0 0.0 0.00 0.00 0.00 99 1018.9
20260902230930 57 195 0.0 0.0 0.00 0.00 0.00 99 1019.0
20260902230922 57 195 0.0 0.0 0.00 0.00 0.00 99 1019.3
20260902230647 57 195 0.0 0.0 0.00 0.00 0.00 98 1019.2
20260902230631 57 195 0.0 0.0 0.00 0.00 0.00 98 1019.0
20260902230615 57 195 0.0 0.0 0.00 0.00 0.00 98 1019.1
20260902230348 57 195 0.0 0.0 0.00 0.00 0.00 98 1019.0
20260902230112 57 195 0.0 0.0 0.00 0.00 0.00 98 1019.0
20260902225755 57 195 0.0 0.0 0.00 0.00 0.00 98 1019.1
20260902225714 57 195 0.0 0.0 0.00 0.00 0.00 98 1019.1
20260902225655 57 195 0.0 0.0 0.00 0.00 0.00 98 1019.2
20260902225553 57 202 0.0 0.0 0.00 0.00 0.00 98 1019.1
20260902225531 57 202 0.0 0.0 0.00 0.00 0.00 98 1019.0
20260902225514 57 198 0.0 0.0 0.00 0.00 0.00 98 1019.2
20260902225214 57 195 0.0 0.0 0.00 0.00 0.00 98 1019.2
20260902225153 57 195 0.0 0.0 0.00 0.00 0.00 98 1019.0
20260902225052 57 195 0.0 0.0 0.00 0.00 0.00 98 1019.1
20260902224953 57 195 0.0 0.0 0.00 0.00 0.00 98 1019.1
20260902224857 57 195 0.0 0.0 0.00 0.00 0.00 98 1019.1
20260902224845 57 195 0.0 0.0 0.00 0.00 0.00 98 1019.1
20260902224819 57 195 0.0 0.0 0.00 0.00 0.00 98 1019.1
20260902224809 57 195 0.0 0.0 0.00 0.00 0.00 98 1019.1
20260902224748 57 195 0.0 0.0 0.00 0.00 0.00 98 1019.0
20260902224733 57 195 0.0 0.0 0.00 0.00 0.00 98 1019.3
20260902224716 57 195 0.0 0.0 0.00 0.00 0.00 98 1019.0
20260902224700 57 195 0.0 0.0 0.00 0.00 0.00 98 1019.1
20260902224433 57 195 0.0 0.0 0.00 0.00 0.00 98 1019.2
20260902224418 57 195 0.0 0.0 0.00 0.00 0.00 98 1019.1
20260902223905 57 195 0.0 0.0 0.00 0.00 0.00 97 1019.3
20260902223554 57 195 0.0 0.0 0.00 0.00 0.00 97 1019.1
20260902223453 57 195 0.0 0.0 0.00 0.00 0.00 97 1019.3
20260902223354 58 195 0.0 0.0 0.00 0.00 0.00 97 1019.1
20260902223238 58 195 0.0 0.0 0.00 0.00 0.00 97 1019.2
20260902223230 58 195 0.0 0.0 0.00 0.00 0.00 97 1019.3
20260902223214 58 195 0.0 0.0 0.00 0.00 0.00 97 1019.1
20260902222853 58 195 0.0 0.0 0.00 0.00 0.00 97 1019.2
20260902222805 58 195 0.0 0.0 0.00 0.00 0.00 96 1019.2
20260902222744 58 195 0.0 0.0 0.00 0.00 0.00 97 1019.1
20260902222735 58 195 0.0 0.0 0.00 0.00 0.00 97 1019.0
20260902222721 58 195 0.0 0.0 0.00 0.00 0.00 97 1019.1
20260902222705 58 195 0.0 0.0 0.00 0.00 0.00 97 1019.3
20260902222650 58 196 0.0 0.0 0.00 0.00 0.00 97 1019.3
20260902222414 58 196 0.0 0.0 0.00 0.00 0.00 97 1019.1
20260902222406 58 195 0.0 0.0 0.00 0.00 0.00 97 1018.9
20260902222350 58 195 0.0 0.0 0.00 0.00 0.00 97 1019.1
20260902222335 58 196 0.0 0.0 0.00 0.00 0.00 97 1019.2
20260902222320 58 196 0.0 0.0 0.00 0.00 0.00 97 1019.0
20260902222245 58 195 0.0 0.0 0.00 0.00 0.00 97 1019.2
20260902222237 58 195 0.0 0.0 0.00 0.00 0.00 97 1019.0
20260902222222 58 195 0.0 0.0 0.00 0.00 0.00 97 1019.2
20260902222206 58 195 0.0 0.0 0.00 0.00 0.00 97 1019.2
20260902222150 58 195 0.0 0.0 0.00 0.00 0.00 97 1018.9
20260902222122 58 195 0.0 0.0 0.00 0.00 0.00 97 1019.1
20260902222113 58 195 0.0 0.0 0.00 0.00 0.00 97 1019.0
20260902222058 58 195 0.0 0.0 0.00 0.00 0.00 97 1019.1
20260902221820 58 202 0.0 0.0 0.00 0.00 0.00 96 1019.0
20260902221750 58 195 0.0 0.0 0.00 0.00 0.00 96 1019.3
20260902221521 58 195 0.0 0.0 0.00 0.00 0.00 96 1019.1
20260902220809 58 195 0.0 0.0 0.00 0.00 0.00 96 1019.0
20260902220800 58 195 0.0 0.0 0.00 0.00 0.00 96 1019.2
20260902220744 58 195 0.0 0.0 0.00 0.00 0.00 96 1019.1
20260902220510 58 195 0.0 0.0 0.00 0.00 0.00 96 1019.3
20260902220021 58 195 0.0 0.0 0.00 0.00 0.00 96 1019.1
20260902220005 58 196 0.0 0.0 0.00 0.00 0.00 96 1019.2
20260902215948 58 196 0.0 0.0 0.00 0.00 0.00 95 1019.1
20260902215933 59 195 0.0 0.0 0.00 0.00 0.00 95 1019.3
20260902215701 59 196 0.0 0.0 0.00 0.00 0.00 95 1018.9
20260902215211 59 196 0.0 0.0 0.00 0.00 0.00 95 1019.1
20260902214714 59 196 0.0 0.0 0.00 0.00 0.00 96 1019.3
20260902214629 59 196 0.0 0.0 0.00 0.00 0.00 96 1019.1
20260902214528 59 196 0.0 0.0 0.00 0.00 0.00 96 1019.1
20260902214429 59 196 0.0 0.0 0.00 0.00 0.00 96 1019.1
20260902214329 59 196 0.0 1.0 0.00 0.00 0.00 96 1018.9
20260902214213 59 196 0.0 1.0 0.00 0.00 0.00 96 1019.1
20260902214129 59 196 0.0 1.0 0.00 0.00 0.00 96 1018.9
20260902214016 59 192 0.0 1.0 0.00 0.00 0.00 96 1018.9
20260902213951 58 198 0.0 0.0 0.00 0.00 0.00 98 1018.9
20260902213946 58 196 0.0 0.0 0.00 0.00 0.00 97 1019.1
20260902213941 59 196 0.0 0.0 0.00 0.00 0.00 97 1019.1
20260902213935 59 186 0.0 1.0 0.00 0.00 0.00 97 1019.1
20260902213918 59 188 0.0 1.0 0.00 0.00 0.00 97 1019.0
20260902213854 59 189 0.0 1.0 0.00 0.00 0.00 97 1019.1
20260902213839 59 181 0.0 1.0 0.00 0.00 0.00 97 1019.0
20260902213823 59 176 0.0 1.0 0.00 0.00 0.00 98 1019.2
20260902213547 58 189 0.0 0.0 0.00 0.00 0.00 98 1019.1
20260902213529 58 198 0.0 0.0 0.00 0.00 0.00 98 1018.9
20260902213303 58 195 0.0 0.0 0.00 0.00 0.00 98 1018.9
20260902213248 58 202 0.0 0.0 0.00 0.00 0.00 98 1019.0
20260902213232 58 196 0.0 0.0 0.00 0.00 0.00 98 1019.0
20260902213217 58 196 0.0 0.0 0.00 0.00 0.00 97 1018.9
20260902212729 58 196 0.0 0.0 0.00 0.00 0.00 97 1019.1
20260902212713 58 196 0.0 0.0 0.00 0.00 0.00 97 1019.1
20260902212656 58 196 0.0 0.0 0.00 0.00 0.00 97 1018.8
20260902212641 58 196 0.0 0.0 0.00 0.00 0.00 97 1019.0
20260902212623 59 196 0.0 0.0 0.00 0.00 0.00 97 1019.1
20260902212357 59 196 0.0 0.0 0.00 0.00 0.00 97 1018.9
20260902211816 59 196 0.0 0.0 0.00 0.00 0.00 97 1019.0
20260902211717 59 196 0.0 0.0 0.00 0.00 0.00 97 1019.0
20260902211605 59 196 0.0 0.0 0.00 0.00 0.00 97 1019.0
20260902211505 59 196 0.0 0.0 0.00 0.00 0.00 97 1019.0
20260902211405 59 196 0.0 0.0 0.00 0.00 0.00 97 1019.1
20260902211305 59 196 0.0 0.0 0.00 0.00 0.00 96 1019.1
20260902211226 59 196 0.0 0.0 0.00 0.00 0.00 96 1018.9
20260902211206 59 196 0.0 0.0 0.00 0.00 0.00 96 1019.0
20260902211105 59 196 0.0 0.0 0.00 0.00 0.00 96 1019.0
20260902211007 59 196 0.0 0.0 0.00 0.00 0.00 96 1019.1
20260902210904 59 196 0.0 0.0 0.00 0.00 0.00 96 1019.1
20260902210805 59 196 0.0 0.0 0.00 0.00 0.00 96 1018.9
20260902210734 59 196 0.0 0.0 0.00 0.00 0.00 96 1018.9
20260902210728 59 196 0.0 0.0 0.00 0.00 0.00 96 1019.0
20260902210713 59 196 0.0 0.0 0.00 0.00 0.00 96 1019.0
20260902210354 59 196 0.0 0.0 0.00 0.00 0.00 96 1019.2
20260902210225 59 196 0.0 0.0 0.00 0.00 0.00 96 1019.1
20260902210154 59 196 0.0 0.0 0.00 0.00 0.00 96 1019.1
20260902210053 60 196 0.0 0.0 0.00 0.00 0.00 96 1019.1
20260902205953 60 196 0.0 0.0 0.00 0.00 0.00 96 1018.9
20260902205908 60 196 0.0 0.0 0.00 0.00 0.00 96 1019.1
20260902205903 60 196 0.0 0.0 0.00 0.00 0.00 95 1018.9
20260902205858 60 196 0.0 0.0 0.00 0.00 0.00 96 1019.0
20260902205826 60 196 0.0 0.0 0.00 0.00 0.00 96 1019.0
20260902205818 60 196 0.0 0.0 0.00 0.00 0.00 96 1018.8
20260902205802 60 196 0.0 0.0 0.00 0.00 0.00 96 1019.1
20260902205746 60 196 0.0 0.0 0.00 0.00 0.00 96 1018.8
20260902205731 60 196 0.0 0.0 0.00 0.00 0.00 96 1018.9
20260902205244 60 196 0.0 0.0 0.00 0.00 0.00 96 1019.0
20260902205229 60 196 0.0 0.0 0.00 0.00 0.00 96 1019.1
20260902205213 60 196 0.0 0.0 0.00 0.00 0.00 96 1018.9
20260902205157 60 196 0.0 0.0 0.00 0.00 0.00 95 1019.1
20260902204654 60 196 0.0 0.0 0.00 0.00 0.00 95 1019.0
20260902204554 60 196 0.0 0.0 0.00 0.00 0.00 95 1019.0
20260902204453 60 196 0.0 0.0 0.00 0.00 0.00 95 1019.0
20260902204353 60 196 0.0 0.0 0.00 0.00 0.00 95 1019.0
20260902204238 60 196 0.0 0.0 0.00 0.00 0.00 95 1018.9
20260902204230 60 196 0.0 0.0 0.00 0.00 0.00 95 1019.1
20260902204214 60 196 0.0 0.0 0.00 0.00 0.00 95 1019.1
20260902203853 60 196 0.0 0.0 0.00 0.00 0.00 95 1018.9
20260902203736 60 196 0.0 0.0 0.00 0.00 0.00 93 1019.0
20260902203726 60 196 0.0 0.0 0.00 0.00 0.00 95 1018.9
20260902203718 60 196 0.0 0.0 0.00 0.00 0.00 95 1018.9
20260902203702 60 196 0.0 0.0 0.00 0.00 0.00 95 1018.9
20260902203647 60 196 0.0 0.0 0.00 0.00 0.00 95 1019.0
20260902203357 60 196 0.0 0.0 0.00 0.00 0.00 95 1019.0
20260902203349 60 196 0.0 0.0 0.00 0.00 0.00 94 1019.2
20260902203334 60 196 0.0 0.0 0.00 0.00 0.00 94 1019.0
20260902203318 60 196 0.0 0.0 0.00 0.00 0.00 94 1019.1
20260902203302 60 196 0.0 0.0 0.00 0.00 0.00 94 1019.0
20260902203247 60 196 0.0 0.0 0.00 0.00 0.00 94 1019.0
20260902202529 60 196 0.0 0.0 0.00 0.00 0.00 93 1019.0
20260902202515 61 196 0.0 0.0 0.00 0.00 0.00 93 1019.0
20260902202214 61 196 0.0 0.0 0.00 0.00 0.00 93 1019.1
20260902202152 61 196 0.0 0.0 0.00 0.00 0.00 93 1018.9
20260902202054 61 196 0.0 0.0 0.00 0.00 0.00 93 1019.1
20260902201953 61 196 0.0 0.0 0.00 0.00 0.00 93 1019.1
20260902201853 61 196 0.0 0.0 0.00 0.00 0.00 93 1018.9
20260902201753 61 196 0.0 0.0 0.00 0.00 0.00 93 1019.0
20260902201714 61 196 0.0 0.0 0.00 0.00 0.00 93 1019.0
20260902201654 61 196 0.0 0.0 0.00 0.00 0.00 93 1019.1
20260902201553 61 196 0.0 0.0 0.00 0.00 0.00 93 1019.0
20260902201453 61 196 0.0 0.0 0.00 0.00 0.00 93 1019.1
20260902201352 61 196 0.0 0.0 0.00 0.00 0.00 93 1019.2
20260902201226 61 196 0.0 0.0 0.00 0.00 0.00 93 1019.1
20260902201153 61 196 0.0 0.0 0.00 0.00 0.00 93 1018.9
20260902201053 61 196 0.0 0.0 0.00 0.00 0.00 93 1019.1
20260902200955 61 196 0.0 0.0 0.00 0.00 0.00 93 1018.9
20260902200854 61 196 0.0 0.0 0.00 0.00 0.00 93 1018.9
20260902200744 61 196 0.0 0.0 0.00 0.00 0.00 92 1019.1
20260902200734 61 196 0.0 0.0 0.00 0.00 0.00 93 1019.0
20260902200726 61 196 0.0 0.0 0.00 0.00 0.00 93 1018.9
20260902200711 61 196 0.0 0.0 0.00 0.00 0.00 93 1019.0
20260902200655 61 196 0.0 0.0 0.00 0.00 0.00 93 1018.9
20260902200641 61 196 0.0 0.0 0.00 0.00 0.00 93 1019.0
20260902200625 61 196 0.0 0.0 0.00 0.00 0.00 93 1019.1
20260902200054 61 196 0.0 0.0 0.00 0.00 0.00 92 1018.9
20260902195953 61 196 0.0 0.0 0.00 0.00 0.00 92 1019.1
20260902195853 61 196 0.0 0.0 0.00 0.00 0.00 92 1019.1
20260902195754 61 196 0.0 0.0 0.00 0.00 0.00 92 1018.9
20260902195734 62 198 0.0 0.0 0.00 0.00 0.00 90 1019.1
20260902195724 61 196 0.0 0.0 0.00 0.00 0.00 92 1018.9
20260902195716 61 196 0.0 0.0 0.00 0.00 0.00 92 1018.9
20260902195700 62 196 0.0 0.0 0.00 0.00 0.00 92 1019.0
20260902195645 62 196 0.0 0.0 0.00 0.00 0.00 91 1019.1
20260902195417 62 196 0.0 0.0 0.00 0.00 0.00 91 1019.1
20260902195348 62 196 0.0 0.0 0.00 0.00 0.00 91 1019.0
20260902195339 62 196 0.0 0.0 0.00 0.00 0.00 91 1018.9
20260902195319 62 196 0.0 0.0 0.00 0.00 0.00 91 1019.0
20260902195306 62 196 0.0 0.0 0.00 0.00 0.00 90 1019.1
20260902195249 62 196 0.0 0.0 0.00 0.00 0.00 90 1019.1
20260902195219 62 196 0.0 0.0 0.00 0.00 0.00 90 1018.9
20260902194948 62 196 0.0 0.0 0.00 0.00 0.00 90 1019.0
20260902194232 62 196 0.0 0.0 0.00 0.00 0.00 90 1019.0
20260902194222 62 196 0.0 0.0 0.00 0.00 0.00 90 1019.0
20260902194206 62 196 0.0 0.0 0.00 0.00 0.00 90 1019.0
20260902194150 62 196 0.0 0.0 0.00 0.00 0.00 90 1019.1
20260902194134 62 196 0.0 0.0 0.00 0.00 0.00 90 1018.9
20260902193905 62 196 0.0 0.0 0.00 0.00 0.00 90 1019.1
20260902193630 62 196 0.0 0.0 0.00 0.00 0.00 90 1019.2
20260902193614 62 196 0.0 0.0 0.00 0.00 0.00 90 1019.2
20260902193349 62 196 0.0 0.0 0.00 0.00 0.00 90 1019.0
20260902193325 62 196 0.0 0.0 0.00 0.00 0.00 90 1019.0
20260902193309 62 196 0.0 0.0 0.00 0.00 0.00 90 1018.9
20260902193253 62 195 0.0 0.0 0.00 0.00 0.00 90 1019.2
20260902193237 62 201 0.0 0.0 0.00 0.00 0.00 90 1019.0
20260902193223 62 198 0.0 0.0 0.00 0.00 0.00 90 1019.2
20260902193203 62 198 0.0 0.0 0.00 0.00 0.00 90 1019.1
20260902192924 62 201 0.0 0.0 0.00 0.00 0.00 90 1019.1
20260902192908 62 201 0.0 0.0 0.00 0.00 0.00 90 1019.3
20260902192852 62 200 0.0 0.0 0.00 0.00 0.00 90 1019.3
20260902192836 62 200 0.0 0.0 0.00 0.00 0.00 89 1019.0
20260902192609 62 198 0.0 0.0 0.00 0.00 0.00 89 1019.0
20260902192552 62 196 0.0 0.0 0.00 0.00 0.00 90 1019.1
20260902192537 62 196 0.0 0.0 0.00 0.00 0.00 89 1019.1
20260902192521 62 196 0.0 0.0 0.00 0.00 0.00 89 1019.1
20260902192237 63 197 0.0 0.0 0.00 0.00 0.00 89 1019.1
20260902192221 63 197 0.0 0.0 0.00 0.00 0.00 89 1019.1
20260902191945 63 196 0.0 0.0 0.00 0.00 0.00 88 1019.1
20260902191238 63 196 0.0 0.0 0.00 0.00 0.00 88 1019.1
20260902190917 63 194 0.0 0.0 0.00 0.00 0.00 88 1019.0
20260902190851 63 194 0.0 0.0 0.00 0.00 0.00 88 1018.9
20260902190827 63 194 0.0 0.0 0.00 0.00 0.00 87 1019.2
20260902190811 63 194 0.0 0.0 0.00 0.00 0.00 87 1019.1
20260902190535 63 190 0.0 0.0 0.00 0.00 0.00 87 1019.2
20260902190520 63 191 0.0 0.0 0.00 0.00 0.00 87 1019.2
20260902190458 63 193 0.0 0.0 0.00 0.00 0.00 88 1019.1
20260902185916 63 195 0.0 0.0 0.00 0.00 0.00 88 1019.2
20260902185817 63 195 0.0 0.0 0.00 0.00 0.00 88 1019.1
20260902185717 63 194 0.0 0.0 0.00 0.00 0.00 88 1019.1
20260902185618 62 194 0.0 0.0 0.00 0.00 0.00 88 1019.0
20260902185518 63 193 0.0 0.0 0.00 0.00 0.00 88 1019.1
20260902185417 63 191 0.0 0.0 0.00 0.00 0.00 89 1018.9
20260902185321 63 191 0.0 0.0 0.00 0.00 0.00 89 1019.0
20260902185222 63 184 0.0 0.0 0.00 0.00 0.00 89 1019.0
20260902185153 62 191 0.0 0.0 0.00 0.00 0.00 89 1019.0
20260902185137 62 185 0.0 0.0 0.00 0.00 0.00 89 1019.0
20260902184817 62 191 0.0 0.0 0.00 0.00 0.00 89 1019.1
20260902184719 62 185 0.0 0.0 0.00 0.00 0.00 89 1018.9
20260902184618 62 185 0.0 0.0 0.00 0.00 0.00 89 1019.0
20260902184518 62 185 0.0 0.0 0.00 0.00 0.00 89 1019.1
20260902184418 62 195 0.0 0.0 0.00 0.00 0.00 89 1019.0
20260902184317 63 195 0.0 0.0 0.00 0.00 0.00 89 1018.7
20260902184217 63 194 0.0 0.0 0.00 0.00 0.00 89 1019.1
20260902184118 63 195 0.0 0.0 0.00 0.00 0.00 89 1018.8
20260902184024 63 195 0.0 0.0 0.00 0.00 0.00 87 1019.0
20260902184019 63 195 0.0 0.0 0.00 0.00 0.00 89 1019.1
20260902184003 63 195 0.0 0.0 0.00 0.00 0.00 88 1019.0
20260902183947 63 195 0.0 0.0 0.00 0.00 0.00 88 1018.9
20260902183928 63 195 0.0 0.0 0.00 0.00 0.00 87 1019.0
20260902183617 63 195 0.0 0.0 0.00 0.00 0.00 87 1018.9
20260902183517 63 195 0.0 0.0 0.00 0.00 0.00 87 1019.1
20260902183459 63 195 0.0 0.0 0.00 0.00 0.00 86 1019.0
20260902183444 63 195 0.0 0.0 0.00 0.00 0.00 86 1018.8
20260902183217 64 195 0.0 0.0 0.00 0.00 0.00 86 1019.0
20260902183117 64 195 0.0 0.0 0.00 0.00 0.00 86 1019.0
20260902183043 64 195 0.0 0.0 0.00 0.00 0.00 86 1018.8
20260902183027 64 194 0.0 0.0 0.00 0.00 0.00 86 1019.0
20260902183012 64 194 0.0 0.0 0.00 0.00 0.00 86 1018.8
20260902182743 64 194 0.0 0.0 0.00 0.00 0.00 86 1018.9
20260902182727 64 194 0.0 0.0 0.00 0.00 0.00 86 1018.9
20260902182711 64 194 0.0 0.0 0.00 0.00 0.00 86 1019.0
20260902182436 64 194 0.0 0.0 0.00 0.00 0.00 86 1019.0
20260902182413 64 194 0.0 0.0 0.00 0.00 0.00 86 1019.0
20260902182357 64 194 0.0 0.0 0.00 0.00 0.00 86 1018.5
20260902181817 64 194 0.0 0.0 0.00 0.00 0.00 86 1018.9
20260902181718 64 194 0.0 0.0 0.00 0.00 0.00 85 1018.9
20260902181618 64 194 0.0 0.0 0.00 0.00 0.00 85 1019.1
20260902181517 64 194 0.0 0.0 0.00 0.00 0.00 85 1019.1
20260902181417 65 194 0.0 0.0 0.00 0.00 0.00 85 1019.0
20260902181317 65 194 0.0 0.0 0.00 0.00 0.00 85 1018.9
20260902181218 65 194 0.0 0.0 0.00 0.00 0.00 85 1019.1
20260902181118 65 194 0.0 0.0 0.00 0.00 0.00 85 1018.9
20260902181055 67 194 0.0 0.0 0.00 0.00 0.00 79 1018.7
20260902181047 65 194 0.0 0.0 0.00 0.00 0.00 84 1019.1
20260902181032 65 194 0.0 0.0 0.00 0.00 0.00 84 1018.9
20260902181016 65 194 0.0 0.0 0.00 0.00 0.00 84 1019.2
20260902180744 65 194 0.0 0.0 0.00 0.00 0.00 84 1018.8
20260902180728 65 194 0.0 0.0 0.00 0.00 0.00 84 1019.1
20260902180713 65 195 0.0 0.0 0.00 0.00 0.00 83 1018.9
20260902180657 65 194 0.0 0.0 0.00 0.00 0.00 83 1018.9
20260902180641 65 194 0.0 0.0 0.00 0.00 0.00 83 1018.9
20260902180415 66 194 0.0 0.0 0.00 0.00 0.00 82 1018.9
20260902180359 66 194 0.0 0.0 0.00 0.00 0.00 82 1018.5
20260902180342 66 194 0.0 0.0 0.00 0.00 0.00 81 1019.0
20260902180326 66 195 0.0 0.0 0.00 0.00 0.00 80 1018.8
20260902180311 66 195 0.0 0.0 0.00 0.00 0.00 80 1018.9
20260902180252 67 194 0.0 0.0 0.00 0.00 0.00 79 1018.7
20260902175600 67 107 0.0 0.0 0.00 0.00 0.00 77 1018.9
20260902175551 67 195 0.0 0.0 0.00 0.00 0.00 78 1018.8
20260902175535 67 107 0.0 0.0 0.00 0.00 0.00 78 1019.0
20260902175519 67 107 0.0 0.0 0.00 0.00 0.00 77 1018.9
20260902175503 67 107 0.0 0.0 0.00 0.00 0.00 77 1018.9
20260902175239 67 107 0.0 0.0 0.00 0.00 0.00 77 1018.7
20260902175223 67 107 0.0 0.0 0.00 0.00 0.00 77 1018.8
20260902175001 67 107 0.0 0.0 0.00 0.00 0.00 77 1018.5
20260902174945 68 107 0.0 0.0 0.00 0.00 0.00 76 1018.8
20260902174926 68 195 0.0 0.0 0.00 0.00 0.00 76 1018.8
20260902174617 68 195 0.0 0.0 0.00 0.00 0.00 76 1018.9
20260902174516 68 195 0.0 0.0 0.00 0.00 0.00 76 1018.8
20260902174416 68 195 0.0 0.0 0.00 0.00 0.00 76 1018.9
20260902174317 68 107 0.0 0.0 0.00 0.00 0.00 75 1018.9
20260902174217 68 195 0.0 0.0 0.00 0.00 0.00 75 1018.9
20260902174116 68 195 0.0 0.0 0.00 0.00 0.00 75 1018.9
20260902174016 68 195 0.0 0.0 0.00 0.00 0.00 75 1018.9
20260902173916 68 195 0.0 0.0 0.00 0.00 0.00 75 1018.8
20260902173817 68 195 0.0 0.0 0.00 0.00 0.00 75 1018.9
20260902173716 68 195 0.0 0.0 0.00 0.00 0.00 74 1018.8
20260902173616 68 195 0.0 0.0 0.00 0.00 0.00 74 1018.8
20260902173516 68 195 0.0 0.0 0.00 0.00 0.00 74 1018.7
20260902173417 68 195 0.0 0.0 0.00 0.00 0.00 74 1018.5
20260902173316 68 195 0.0 0.0 0.00 0.00 0.00 74 1018.7
20260902173251 68 195 0.0 0.0 0.00 0.00 0.00 74 1018.8
20260902173236 68 187 0.0 0.0 0.00 0.00 0.00 73 1018.8
20260902172916 68 187 0.0 0.0 0.00 0.00 0.00 73 1018.9
20260902172816 68 187 0.0 0.0 0.00 0.00 0.00 73 1018.8
20260902172716 69 195 0.0 0.0 0.00 0.00 0.00 73 1018.7
20260902172617 69 187 0.0 0.0 0.00 0.00 0.00 73 1018.8
20260902172516 69 195 0.0 0.0 0.00 0.00 0.00 73 1018.5
20260902172418 69 187 0.0 0.0 0.00 0.00 0.00 73 1018.5
20260902172317 69 195 0.0 0.0 0.00 0.00 0.00 72 1018.5
20260902172216 69 187 0.0 0.0 0.00 0.00 0.00 73 1018.5
20260902172117 69 195 0.0 0.0 0.00 0.00 0.00 73 1018.7
20260902172018 69 187 0.0 0.0 0.00 0.00 0.00 73 1018.8
20260902172002 69 191 0.0 0.0 0.00 0.00 0.00 73 1018.9
20260902171945 69 187 0.0 0.0 0.00 0.00 0.00 73 1018.7
20260902171716 69 187 0.0 0.0 0.00 0.00 0.00 72 1018.5
20260902171616 69 193 0.0 0.0 0.00 0.00 0.00 72 1018.7
20260902171516 69 191 0.0 0.0 0.00 0.00 0.00 72 1018.8
20260902171416 69 191 0.0 0.0 0.00 0.00 0.00 72 1018.4
20260902171317 69 191 0.0 0.0 0.00 0.00 0.00 72 1018.7
20260902171216 69 191 0.0 0.0 0.00 0.00 0.00 72 1018.8
20260902171118 69 193 0.0 0.0 0.00 0.00 0.00 72 1018.7
20260902171016 70 191 0.0 0.0 0.00 0.00 0.00 71 1018.5
20260902170916 70 187 0.0 0.0 0.00 0.00 0.00 72 1018.7
20260902170816 70 191 0.0 0.0 0.00 0.00 0.00 72 1018.8
20260902170716 70 191 0.0 0.0 0.00 0.00 0.00 71 1018.5
20260902170616 70 191 0.0 0.0 0.00 0.00 0.00 71 1018.8
20260902170516 70 191 0.0 0.0 0.00 0.00 0.00 71 1018.7
20260902170416 70 191 0.0 0.0 0.00 0.00 0.00 71 1018.7
20260902170316 70 187 0.0 0.0 0.00 0.00 0.00 71 1018.8
20260902170216 70 187 0.0 0.0 0.00 0.00 0.00 70 1018.4
20260902170116 70 191 0.0 0.0 0.00 0.00 0.00 70 1018.8
20260902170016 70 187 0.0 0.0 0.00 0.00 0.00 70 1018.4
20260902165917 70 195 0.0 0.0 0.00 0.00 0.00 70 1018.7
20260902165901 70 195 0.0 0.0 0.00 0.00 0.00 70 1018.7
20260902165837 70 195 0.0 0.0 0.00 0.00 0.00 70 1018.7
20260902165516 70 198 0.0 0.0 0.00 0.00 0.00 71 1018.7
20260902165417 70 198 0.0 0.0 0.00 0.00 0.00 71 1018.7
20260902165316 70 198 0.0 0.0 0.00 0.00 0.00 70 1018.8
20260902165216 70 198 0.0 0.0 0.00 0.00 0.00 70 1018.4
20260902165116 70 198 0.0 0.0 0.00 0.00 0.00 70 1018.8
20260902165016 70 196 0.0 0.0 0.00 0.00 0.00 69 1018.5
20260902165000 70 195 0.0 0.0 0.00 0.00 0.00 69 1018.7
20260902164945 70 199 0.0 0.0 0.00 0.00 0.00 69 1018.5
20260902164716 70 199 0.0 0.0 0.00 0.00 0.00 69 1018.7
20260902164351 70 196 0.0 1.0 0.00 0.00 0.00 70 1018.4
20260902164327 70 196 0.0 1.0 0.00 0.00 0.00 70 1018.7
20260902164311 70 194 0.0 0.0 0.00 0.00 0.00 70 1018.4
20260902163951 70 194 0.0 0.0 0.00 0.00 0.00 69 1018.7
20260902163852 70 194 0.0 0.0 0.00 0.00 0.00 69 1018.7
20260902163830 70 192 0.0 0.0 0.00 0.00 0.00 69 1018.5
20260902163812 70 190 0.0 0.0 0.00 0.00 0.00 69 1018.5
20260902163756 70 189 0.0 0.0 0.00 0.00 0.00 69 1018.4
20260902163519 70 198 0.0 0.0 0.00 0.00 0.00 70 1018.7
20260902163252 70 196 0.0 0.0 0.00 0.00 0.00 70 1018.7
20260902163151 70 196 0.0 0.0 0.00 0.00 0.00 69 1018.8
20260902163139 71 198 0.0 1.0 0.00 0.00 0.00 70 1018.7
20260902163129 70 191 0.0 0.0 0.00 0.00 0.00 70 1018.8
20260902163113 70 198 0.0 0.0 0.00 0.00 0.00 69 1018.8
20260902162831 70 198 0.0 1.0 0.00 0.00 0.00 70 1018.5
20260902162813 70 198 0.0 1.0 0.00 0.00 0.00 70 1018.4
20260902162756 70 198 0.0 1.0 0.00 0.00 0.00 70 1018.5
20260902162740 71 198 0.0 1.0 0.00 0.00 0.00 70 1018.4
20260902162724 71 198 0.0 1.0 0.00 0.00 0.00 70 1018.8
20260902162152 71 199 0.0 1.0 0.00 0.00 0.00 69 1018.7
20260902162051 71 200 0.0 1.0 0.00 0.00 0.00 69 1018.4
20260902161951 71 200 0.0 1.0 0.00 0.00 0.00 69 1018.9
20260902161851 71 200 0.0 1.0 0.00 0.00 0.00 69 1018.5
20260902161751 71 193 0.0 0.0 0.00 0.00 0.00 69 1018.7
20260902161652 71 187 0.0 0.0 0.00 0.00 0.00 69 1018.7
20260902161552 71 192 0.0 0.0 0.00 0.00 0.00 69 1018.5
20260902161454 71 192 0.0 0.0 0.00 0.00 0.00 69 1018.7
20260902161438 71 191 0.0 0.0 0.00 0.00 0.00 69 1018.7
20260902161416 71 191 0.0 0.0 0.00 0.00 0.00 69 1018.7
20260902161052 71 191 0.0 0.0 0.00 0.00 0.00 68 1018.5
20260902160952 71 203 0.0 0.0 0.00 0.00 0.00 68 1018.5
20260902160855 72 196 0.0 1.0 0.00 0.00 0.00 67 1018.7
20260902160851 71 199 0.0 0.0 0.00 0.00 0.00 68 1018.4
20260902160829 71 195 0.0 0.0 0.00 0.00 0.00 68 1018.7
20260902160811 71 195 0.0 0.0 0.00 0.00 0.00 68 1018.3
20260902160755 72 187 0.0 0.0 0.00 0.00 0.00 68 1018.8
20260902160520 72 194 0.0 1.0 0.00 0.00 0.00 67 1018.5
20260902160502 72 196 0.0 1.0 0.00 0.00 0.00 67 1018.7
20260902160151 72 196 0.0 1.0 0.00 0.00 0.00 66 1018.7
20260902160051 72 196 0.0 1.0 0.00 0.00 0.00 67 1018.7
20260902155952 72 195 0.0 1.0 0.00 0.00 0.00 66 1018.8
20260902155851 72 192 0.0 1.0 0.00 0.00 0.00 66 1018.7
20260902155752 72 191 0.0 1.0 0.00 0.00 0.00 66 1018.8
20260902155652 72 198 0.0 1.0 0.00 0.00 0.00 66 1018.8
20260902155551 72 196 0.0 1.0 0.00 0.00 0.00 66 1018.7
20260902155451 72 191 0.0 1.0 0.00 0.00 0.00 66 1018.8
20260902155351 72 195 0.0 1.0 0.00 0.00 0.00 66 1018.7
20260902155252 72 196 0.0 1.0 0.00 0.00 0.00 66 1018.5
20260902155229 72 194 0.0 2.0 0.00 0.00 0.00 66 1018.5
20260902155214 72 192 0.0 2.0 0.00 0.00 0.00 66 1018.7
20260902155158 72 199 0.0 2.0 0.00 0.00 0.00 66 1018.9
20260902155142 72 198 0.0 2.0 0.00 0.00 0.00 66 1018.8
20260902154915 72 198 0.0 2.0 0.00 0.00 0.00 66 1018.8
20260902154628 72 190 0.0 2.0 0.00 0.00 0.00 66 1018.7
20260902154612 72 194 0.0 2.0 0.00 0.00 0.00 66 1018.7
20260902154252 72 187 0.0 2.0 0.00 0.00 0.00 65 1018.7
20260902154151 72 174 0.0 0.0 0.00 0.00 0.00 65 1018.8
20260902154119 72 196 0.0 1.0 0.00 0.00 0.00 65 1018.8
20260902154103 72 198 0.0 1.0 0.00 0.00 0.00 65 1018.7
20260902154047 72 184 0.0 1.0 0.00 0.00 0.00 65 1018.5
20260902154025 72 195 0.0 1.0 0.00 0.00 0.00 65 1018.5
20260902154007 72 198 0.0 1.0 0.00 0.00 0.00 65 1018.5
20260902153951 72 190 0.0 1.0 0.00 0.00 0.00 65 1018.7
20260902153715 73 185 0.0 1.0 0.00 0.00 0.00 65 1018.7
20260902153449 73 193 0.0 1.0 0.00 0.00 0.00 65 1018.5
20260902153433 73 187 0.0 1.0 0.00 0.00 0.00 65 1018.9
20260902152851 73 194 0.0 1.0 0.00 0.00 0.00 65 1018.9
20260902152751 73 187 0.0 1.0 0.00 0.00 0.00 65 1018.7
20260902152651 73 192 0.0 1.0 0.00 0.00 0.00 65 1018.5
20260902152552 73 199 0.0 1.0 0.00 0.00 0.00 64 1018.8
20260902152452 73 200 0.0 1.0 0.00 0.00 0.00 64 1018.7
20260902152351 73 195 0.0 1.0 0.00 0.00 0.00 64 1018.8
20260902152338 74 196 0.0 2.0 0.00 0.00 0.00 63 1019.1
20260902152320 73 192 0.0 1.0 0.00 0.00 0.00 64 1018.7
20260902152307 73 192 0.0 1.0 0.00 0.00 0.00 64 1019.1
20260902152247 73 183 0.0 0.0 0.00 0.00 0.00 63 1018.7
20260902152232 74 196 0.0 1.0 0.00 0.00 0.00 63 1018.7
20260902151947 74 200 0.0 1.0 0.00 0.00 0.00 63 1018.9
20260902151929 74 196 0.0 1.0 0.00 0.00 0.00 63 1018.9
20260902151654 74 198 0.0 1.0 0.00 0.00 0.00 63 1018.7
20260902151637 74 201 0.0 1.0 0.00 0.00 0.00 64 1018.8
20260902151409 74 206 0.0 2.0 0.00 0.00 0.00 63 1018.7
20260902151354 74 195 0.0 2.0 0.00 0.00 0.00 63 1018.8
20260902151117 73 197 0.0 2.0 0.00 0.00 0.00 64 1018.7
20260902150851 73 197 0.0 2.0 0.00 0.00 0.00 64 1018.8
20260902150829 73 197 0.0 2.0 0.00 0.00 0.00 64 1018.9
20260902150810 73 194 0.0 2.0 0.00 0.00 0.00 64 1018.8
20260902150754 73 191 0.0 2.0 0.00 0.00 0.00 64 1018.9
20260902150738 74 204 0.0 2.0 0.00 0.00 0.00 64 1019.0
20260902150500 74 196 0.0 2.0 0.00 0.00 0.00 63 1019.1
20260902150150 74 192 0.0 2.0 0.00 0.00 0.00 63 1019.0
20260902150049 74 211 1.0 2.0 0.00 0.00 0.00 63 1018.8
20260902145951 74 196 0.0 1.0 0.00 0.00 0.00 63 1019.1
20260902145850 74 188 0.0 1.0 0.00 0.00 0.00 64 1018.8
20260902145750 74 194 0.0 1.0 0.00 0.00 0.00 63 1019.0
20260902145650 74 190 0.0 1.0 0.00 0.00 0.00 64 1019.1
20260902145627 74 199 0.0 1.0 0.00 0.00 0.00 64 1019.0
20260902145611 74 200 0.0 1.0 0.00 0.00 0.00 64 1019.1
20260902145250 74 194 0.0 2.0 0.00 0.00 0.00 64 1018.9
20260902145150 74 196 0.0 2.0 0.00 0.00 0.00 64 1019.1
20260902145127 74 196 0.0 2.0 0.00 0.00 0.00 64 1018.9
20260902145112 74 134 0.0 2.0 0.00 0.00 0.00 63 1019.0
20260902144751 74 129 0.0 2.0 0.00 0.00 0.00 63 1018.9
20260902144704 74 175 1.0 2.0 0.00 0.00 0.00 63 1018.9
20260902144647 74 196 0.0 2.0 0.00 0.00 0.00 63 1018.9
20260902144631 74 206 0.0 2.0 0.00 0.00 0.00 63 1019.1
20260902144614 74 196 0.0 2.0 0.00 0.00 0.00 63 1018.9
20260902144526 74 186 0.0 2.0 0.00 0.00 0.00 63 1019.1
20260902144454 74 186 0.0 2.0 0.00 0.00 0.00 63 1019.1
20260902144431 74 183 0.0 2.0 0.00 0.00 0.00 64 1018.9
20260902143935 74 184 0.0 2.0 0.00 0.00 0.00 64 1019.1
20260902143913 74 196 0.0 2.0 0.00 0.00 0.00 64 1019.0
20260902143550 74 99 1.0 2.0 0.00 0.00 0.00 63 1018.9
20260902143451 74 132 0.0 2.0 0.00 0.00 0.00 63 1019.0
20260902143426 74 193 0.0 2.0 0.00 0.00 0.00 63 1018.9
20260902143403 74 194 0.0 2.0 0.00 0.00 0.00 63 1019.1
20260902143346 74 199 0.0 2.0 0.00 0.00 0.00 63 1019.1
20260902143331 74 186 0.0 2.0 0.00 0.00 0.00 63 1019.1
20260902142750 74 261 1.0 2.0 0.00 0.00 0.00 62 1019.0
20260902142727 74 210 0.0 2.0 0.00 0.00 0.00 62 1018.9
20260902142711 74 199 0.0 1.0 0.00 0.00 0.00 62 1018.9
20260902142352 74 200 0.0 1.0 0.00 0.00 0.00 62 1019.0
20260902142326 74 196 0.0 1.0 0.00 0.00 0.00 62 1019.1
20260902142310 74 200 0.0 1.0 0.00 0.00 0.00 62 1018.9
20260902141951 75 178 0.0 1.0 0.00 0.00 0.00 62 1019.0
20260902141850 75 191 0.0 1.0 0.00 0.00 0.00 61 1019.2
20260902141751 75 202 0.0 2.0 0.00 0.00 0.00 61 1019.2
20260902141651 75 205 0.0 2.0 0.00 0.00 0.00 60 1018.9
20260902141551 75 201 0.0 2.0 0.00 0.00 0.00 60 1019.0
20260902141451 75 200 0.0 2.0 0.00 0.00 0.00 61 1019.1
20260902141351 75 196 0.0 2.0 0.00 0.00 0.00 61 1019.1
20260902141250 75 201 0.0 2.0 0.00 0.00 0.00 61 1018.9
20260902141217 75 210 0.0 2.0 0.00 0.00 0.00 61 1019.1
20260902141201 75 201 0.0 2.0 0.00 0.00 0.00 60 1019.2
20260902141145 75 202 0.0 2.0 0.00 0.00 0.00 60 1019.0
20260902141129 75 202 0.0 2.0 0.00 0.00 0.00 60 1018.9
20260902141107 75 199 0.0 2.0 0.00 0.00 0.00 60 1019.2
20260902141049 75 200 0.0 2.0 0.00 0.00 0.00 60 1019.1
20260902141034 75 199 0.0 2.0 0.00 0.00 0.00 60 1019.1
20260902141020 75 76 1.0 2.0 0.00 0.00 0.00 61 1019.1
20260902141005 74 202 0.0 2.0 0.00 0.00 0.00 61 1019.0
20260902140943 74 209 0.0 2.0 0.00 0.00 0.00 61 1019.2
20260902140446 74 177 0.0 2.0 0.00 0.00 0.00 62 1019.1
20260902135956 75 196 0.0 2.0 0.00 0.00 0.00 61 1019.0
20260902135938 75 176 0.0 2.0 0.00 0.00 0.00 62 1019.3
20260902135922 75 97 1.0 2.0 0.00 0.00 0.00 63 1019.3
20260902135646 75 143 1.0 2.0 0.00 0.00 0.00 61 1019.1
20260902135623 76 208 1.0 2.0 0.00 0.00 0.00 61 1019.2
20260902135346 75 196 0.0 1.0 0.00 0.00 0.00 61 1019.2
20260902135108 75 149 0.0 2.0 0.00 0.00 0.00 62 1019.2
20260902135051 75 201 0.0 2.0 0.00 0.00 0.00 62 1018.9
20260902134822 75 192 0.0 2.0 0.00 0.00 0.00 62 1019.1
20260902134545 75 201 0.0 2.0 0.00 0.00 0.00 60 1019.2
20260902134247 75 178 0.0 2.0 0.00 0.00 0.00 62 1019.3
20260902134236 75 134 1.0 2.0 0.00 0.00 0.00 62 1019.3
20260902134127 75 219 0.0 2.0 0.00 0.00 0.00 63 1019.3
20260902134048 75 211 0.0 3.0 0.00 0.00 0.00 62 1019.3
20260902133926 75 38 2.0 3.0 0.00 0.00 0.00 62 1019.2
20260902133827 75 206 0.0 3.0 0.00 0.00 0.00 63 1019.3
20260902133746 75 206 0.0 3.0 0.00 0.00 0.00 63 1019.4
20260902133727 75 211 0.0 3.0 0.00 0.00 0.00 62 1019.4
20260902133626 75 202 0.0 3.0 0.00 0.00 0.00 62 1019.5
20260902133526 75 198 0.0 3.0 0.00 0.00 0.00 62 1019.3
20260902133457 75 192 0.0 3.0 0.00 0.00 0.00 62 1019.2
20260902133441 75 198 0.0 3.0 0.00 0.00 0.00 62 1019.5
20260902133428 75 185 0.0 3.0 0.00 0.00 0.00 61 1019.3
20260902133114 75 139 0.0 3.0 0.00 0.00 0.00 62 1019.2
20260902133014 75 54 2.0 3.0 0.00 0.00 0.00 63 1019.3
20260902132914 75 173 1.0 2.0 0.00 0.00 0.00 63 1019.1
20260902132814 74 28 1.0 3.0 0.00 0.00 0.00 61 1019.2
20260902132748 74 178 0.0 3.0 0.00 0.00 0.00 61 1019.3
20260902132714 74 242 0.0 3.0 0.00 0.00 0.00 62 1019.3
20260902132614 74 195 0.0 3.0 0.00 0.00 0.00 62 1019.4
20260902132514 74 201 0.0 3.0 0.00 0.00 0.00 62 1019.0
20260902132414 74 196 0.0 3.0 0.00 0.00 0.00 62 1019.1
20260902132314 75 196 0.0 3.0 0.00 0.00 0.00 62 1019.2
20260902132246 75 200 0.0 3.0 0.00 0.00 0.00 62 1019.0
20260902132231 76 169 0.0 7.0 0.00 0.00 0.00 61 1019.3
20260902132226 76 202 0.0 7.0 0.00 0.00 0.00 61 1019.2
20260902132221 75 195 0.0 3.0 0.00 0.00 0.00 62 1019.0
20260902132206 75 205 0.0 3.0 0.00 0.00 0.00 61 1019.2
20260902132149 75 225 0.0 3.0 0.00 0.00 0.00 61 1019.4
20260902132133 75 198 1.0 3.0 0.00 0.00 0.00 60 1019.2
20260902131901 76 180 1.0 3.0 0.00 0.00 0.00 60 1019.2
20260902131850 76 221 1.0 3.0 0.00 0.00 0.00 60 1019.3
20260902131835 76 202 0.0 3.0 0.00 0.00 0.00 60 1019.4
20260902131819 76 196 0.0 3.0 0.00 0.00 0.00 60 1019.3
20260902131543 76 201 0.0 7.0 0.00 0.00 0.00 60 1019.2
20260902131315 76 203 0.0 7.0 0.00 0.00 0.00 61 1019.3
20260902131259 76 219 1.0 7.0 0.00 0.00 0.00 61 1019.3
20260902131034 76 198 0.0 7.0 0.00 0.00 0.00 61 1019.3
20260902131019 76 233 1.0 7.0 0.00 0.00 0.00 60 1019.3
20260902131003 76 196 1.0 7.0 0.00 0.00 0.00 61 1019.3
20260902130702 76 204 0.0 7.0 0.00 0.00 0.00 62 1019.4
20260902130602 75 206 0.0 7.0 0.00 0.00 0.00 61 1019.3
20260902130542 75 203 0.0 1.0 0.00 0.00 0.00 64 1019.3
20260902130534 75 199 0.0 7.0 0.00 0.00 0.00 61 1019.3
20260902130518 75 223 4.0 7.0 0.00 0.00 0.00 61 1019.2
20260902130503 75 203 0.0 1.0 0.00 0.00 0.00 63 1019.3
20260902130203 75 201 0.0 1.0 0.00 0.00 0.00 64 1019.6
20260902130103 75 188 0.0 1.0 0.00 0.00 0.00 65 1019.5
20260902130043 74 202 0.0 1.0 0.00 0.00 0.00 65 1019.3
20260902130035 75 184 0.0 1.0 0.00 0.00 0.00 65 1019.3
20260902130019 74 199 0.0 1.0 0.00 0.00 0.00 65 1019.5
20260902130003 74 202 0.0 1.0 0.00 0.00 0.00 65 1019.3
20260902125703 75 195 0.0 1.0 0.00 0.00 0.00 65 1019.3
20260902125602 75 196 0.0 1.0 0.00 0.00 0.00 64 1019.3
20260902125502 76 196 0.0 2.0 0.00 0.00 0.00 64 1019.4
20260902125404 76 160 0.0 2.0 0.00 0.00 0.00 63 1019.4
20260902125305 76 162 0.0 2.0 0.00 0.00 0.00 63 1019.4
20260902125246 76 198 0.0 2.0 0.00 0.00 0.00 62 1019.4
20260902125203 76 179 0.0 2.0 0.00 0.00 0.00 63 1019.5
20260902125103 76 202 0.0 2.0 0.00 0.00 0.00 64 1019.5
20260902125033 76 174 0.0 2.0 0.00 0.00 0.00 63 1019.5
20260902125017 77 119 0.0 3.0 0.00 0.00 0.00 63 1019.4
20260902124750 77 212 0.0 3.0 0.00 0.00 0.00 61 1019.3
20260902124650 77 184 0.0 3.0 0.00 0.00 0.00 60 1019.5
20260902124550 77 211 0.0 3.0 0.00 0.00 0.00 60 1019.6
20260902124450 77 207 0.0 3.0 0.00 0.00 0.00 61 1019.6
20260902124433 76 216 0.0 3.0 0.00 0.00 0.00 61 1019.4
20260902124411 76 204 0.0 3.0 0.00 0.00 0.00 62 1019.5
20260902124051 76 173 1.0 3.0 0.00 0.00 0.00 61 1019.4
20260902124032 76 187 1.0 3.0 0.00 0.00 0.00 62 1019.4
20260902124016 76 206 0.0 2.0 0.00 0.00 0.00 61 1019.4
20260902123750 76 200 0.0 2.0 0.00 0.00 0.00 61 1019.6
20260902123650 76 205 0.0 1.0 0.00 0.00 0.00 63 1019.3
20260902123551 76 199 0.0 1.0 0.00 0.00 0.00 64 1019.3
20260902123450 76 196 0.0 1.0 0.00 0.00 0.00 64 1019.6
20260902123350 75 200 0.0 1.0 0.00 0.00 0.00 65 1019.5
20260902123252 75 202 0.0 2.0 0.00 0.00 0.00 64 1019.6
20260902123151 75 203 0.0 2.0 0.00 0.00 0.00 66 1019.5
20260902123050 74 208 0.0 2.0 0.00 0.00 0.00 68 1019.4
20260902122951 74 198 0.0 2.0 0.00 0.00 0.00 66 1019.5
20260902122851 74 201 0.0 2.0 0.00 0.00 0.00 66 1019.6
20260902122828 74 197 0.0 2.0 0.00 0.00 0.00 66 1019.6
20260902122811 74 202 0.0 2.0 0.00 0.00 0.00 66 1019.7
20260902122450 74 187 0.0 2.0 0.00 0.00 0.00 65 1019.7
20260902122350 74 171 1.0 2.0 0.00 0.00 0.00 65 1019.8
20260902122250 75 204 0.0 2.0 0.00 0.00 0.00 65 1019.6
20260902122151 75 201 0.0 2.0 0.00 0.00 0.00 66 1019.7
20260902122054 75 199 0.0 3.0 0.00 0.00 0.00 64 1019.7
20260902122050 75 194 0.0 2.0 0.00 0.00 0.00 66 1019.7
20260902122034 75 200 0.0 2.0 0.00 0.00 0.00 64 1019.6
20260902122018 75 201 0.0 2.0 0.00 0.00 0.00 64 1019.4
20260902122000 75 199 0.0 3.0 0.00 0.00 0.00 64 1019.7
20260902121650 75 206 0.0 3.0 0.00 0.00 0.00 65 1019.9
20260902121551 74 195 0.0 3.0 0.00 0.00 0.00 64 1019.6
20260902121451 75 198 0.0 3.0 0.00 0.00 0.00 64 1019.8
20260902121349 75 200 0.0 3.0 0.00 0.00 0.00 64 1019.8
20260902121250 75 196 0.0 3.0 0.00 0.00 0.00 65 1019.7
20260902121229 75 197 0.0 3.0 0.00 0.00 0.00 65 1019.8
20260902121212 75 196 0.0 3.0 0.00 0.00 0.00 64 1019.7
20260902120850 75 202 0.0 3.0 0.00 0.00 0.00 64 1019.6
20260902120750 75 200 0.0 2.0 0.00 0.00 0.00 65 1019.5
20260902120727 75 183 0.0 2.0 0.00 0.00 0.00 64 1019.8
20260902120711 75 203 0.0 2.0 0.00 0.00 0.00 65 1019.8
20260902120350 75 163 1.0 2.0 0.00 0.00 0.00 66 1019.6
20260902120250 75 173 0.0 2.0 0.00 0.00 0.00 65 1019.7
20260902120234 75 201 0.0 2.0 0.00 0.00 0.00 65 1019.7
20260902120150 75 89 0.0 2.0 0.00 0.00 0.00 65 1020.0
20260902120050 75 172 0.0 2.0 0.00 0.00 0.00 64 1019.7
20260902115950 76 158 1.0 2.0 0.00 0.00 0.00 64 1020.0
20260902115851 75 184 1.0 2.0 0.00 0.00 0.00 64 1019.7
20260902115750 75 146 1.0 2.0 0.00 0.00 0.00 63 1019.6
20260902115735 75 47 1.0 2.0 0.00 0.00 0.00 63 1019.6
20260902115650 75 227 0.0 2.0 0.00 0.00 0.00 63 1019.7
20260902115551 74 191 0.0 2.0 0.00 0.00 0.00 63 1019.7
20260902115450 74 177 1.0 2.0 0.00 0.00 0.00 62 1019.9
20260902115349 74 198 0.0 2.0 0.00 0.00 0.00 61 1019.7
20260902115251 74 200 0.0 2.0 0.00 0.00 0.00 61 1019.9
20260902115234 74 210 0.0 2.0 0.00 0.00 0.00 61 1019.9
20260902115150 74 189 0.0 3.0 0.00 0.00 0.00 61 1019.8
20260902115051 74 190 0.0 3.0 0.00 0.00 0.00 62 1019.7
20260902114950 74 194 1.0 3.0 0.00 0.00 0.00 61 1019.7
20260902114850 74 168 0.0 3.0 0.00 0.00 0.00 61 1019.9
20260902114735 75 197 0.0 3.0 0.00 0.00 0.00 61 1019.8
20260902114651 75 199 0.0 3.0 0.00 0.00 0.00 61 1019.7
20260902114551 76 152 0.0 3.0 0.00 0.00 0.00 60 1019.7
20260902114450 76 202 1.0 3.0 0.00 0.00 0.00 59 1019.8
20260902114350 76 196 0.0 4.0 0.00 0.00 0.00 60 1019.6
20260902114251 76 150 0.0 4.0 0.00 0.00 0.00 62 1019.9
20260902114235 76 223 0.0 4.0 0.00 0.00 0.00 62 1019.9
20260902114150 76 217 1.0 4.0 0.00 0.00 0.00 61 1019.7
20260902114050 76 194 0.0 4.0 0.00 0.00 0.00 60 1019.8
20260902113951 76 202 0.0 4.0 0.00 0.00 0.00 60 1019.9
20260902113850 76 197 0.0 4.0 0.00 0.00 0.00 60 1019.8
20260902113750 76 178 0.0 4.0 0.00 0.00 0.00 61 1019.8
20260902113735 76 171 0.0 4.0 0.00 0.00 0.00 61 1019.8
20260902113717 75 199 0.0 2.0 0.00 0.00 0.00 62 1019.9
20260902113711 76 197 0.0 4.0 0.00 0.00 0.00 59 1019.7
20260902113653 77 208 1.0 4.0 0.00 0.00 0.00 59 1020.0
20260902113637 77 217 3.0 4.0 0.00 0.00 0.00 59 1019.8
20260902113621 77 210 1.0 3.0 0.00 0.00 0.00 59 1019.9
20260902113348 76 210 0.0 1.0 0.00 0.00 0.00 62 1019.8
20260902113339 75 210 0.0 1.0 0.00 0.00 0.00 62 1019.9
20260902113323 75 204 0.0 1.0 0.00 0.00 0.00 62 1020.0
20260902113309 75 196 0.0 2.0 0.00 0.00 0.00 62 1020.0
20260902113032 75 201 0.0 2.0 0.00 0.00 0.00 62 1019.9
20260902112803 75 206 0.0 2.0 0.00 0.00 0.00 61 1019.9
20260902112747 75 198 0.0 2.0 0.00 0.00 0.00 61 1020.0
20260902112731 76 199 0.0 2.0 0.00 0.00 0.00 61 1019.8
20260902112223 76 193 0.0 2.0 0.00 0.00 0.00 59 1020.0
20260902112150 77 200 0.0 2.0 0.00 0.00 0.00 60 1020.2
20260902112051 77 185 0.0 2.0 0.00 0.00 0.00 59 1019.9
20260902111951 78 204 0.0 2.0 0.00 0.00 0.00 58 1019.7
20260902111851 78 205 0.0 4.0 0.00 0.00 0.00 59 1019.9
20260902111751 78 201 0.0 4.0 0.00 0.00 0.00 59 1019.9
20260902111722 78 200 0.0 4.0 0.00 0.00 0.00 59 1019.9
20260902111713 77 251 0.0 2.0 0.00 0.00 0.00 59 1019.9
20260902111706 77 211 1.0 3.0 0.00 0.00 0.00 59 1020.1
20260902111701 78 152 0.0 4.0 0.00 0.00 0.00 59 1019.9
20260902111644 78 222 0.0 4.0 0.00 0.00 0.00 57 1019.9
20260902111628 78 204 0.0 4.0 0.00 0.00 0.00 57 1020.0
20260902111613 78 190 0.0 4.0 0.00 0.00 0.00 59 1020.0
20260902111557 78 205 0.0 9.0 0.00 0.00 0.00 59 1019.9
20260902111543 78 191 0.0 9.0 0.00 0.00 0.00 60 1019.9
20260902111314 78 184 2.0 9.0 0.00 0.00 0.00 58 1019.7
20260902111257 78 117 0.0 9.0 0.00 0.00 0.00 59 1020.0
20260902111241 78 203 0.0 9.0 0.00 0.00 0.00 59 1019.8
20260902111225 77 205 0.0 9.0 0.00 0.00 0.00 62 1020.1
20260902111208 77 210 0.0 9.0 0.00 0.00 0.00 60 1020.1
20260902110939 76 217 0.0 9.0 0.00 0.00 0.00 59 1019.8
20260902110923 76 201 0.0 9.0 0.00 0.00 0.00 59 1019.8
20260902110907 77 199 1.0 9.0 0.00 0.00 0.00 59 1019.9
20260902110851 77 232 3.0 7.0 0.00 0.00 0.00 59 1019.9
20260902110622 77 207 0.0 3.0 0.00 0.00 0.00 59 1020.0
20260902110346 77 196 0.0 9.0 0.00 0.00 0.00 59 1020.1
20260902110110 77 201 0.0 9.0 0.00 0.00 0.00 61 1020.0
20260902110053 77 199 0.0 9.0 0.00 0.00 0.00 61 1020.0
20260902105550 77 216 0.0 9.0 0.00 0.00 0.00 59 1020.1
20260902105535 77 201 0.0 9.0 0.00 0.00 0.00 59 1020.0
20260902105300 77 202 1.0 9.0 0.00 0.00 0.00 58 1019.9
20260902105251 77 213 3.0 4.0 0.00 0.00 0.00 57 1019.9
20260902105234 77 191 1.0 2.0 0.00 0.00 0.00 59 1020.1
20260902105216 77 243 1.0 2.0 0.00 0.00 0.00 60 1020.2
20260902105200 78 203 0.0 2.0 0.00 0.00 0.00 59 1020.1
20260902104925 78 196 0.0 2.0 0.00 0.00 0.00 60 1020.3
20260902104916 78 199 0.0 2.0 0.00 0.00 0.00 59 1020.0
20260902104900 78 203 0.0 2.0 0.00 0.00 0.00 61 1020.2
20260902104844 78 201 0.0 3.0 0.00 0.00 0.00 58 1020.0
20260902104828 79 189 0.0 3.0 0.00 0.00 0.00 57 1020.1
20260902104811 79 202 0.0 3.0 0.00 0.00 0.00 56 1020.1
20260902104757 79 202 0.0 3.0 0.00 0.00 0.00 57 1020.1
20260902104527 79 200 0.0 3.0 0.00 0.00 0.00 57 1020.2
20260902104511 79 200 0.0 3.0 0.00 0.00 0.00 59 1020.4
20260902104012 78 203 0.0 3.0 0.00 0.00 0.00 58 1020.3
20260902104003 78 205 0.0 3.0 0.00 0.00 0.00 57 1020.1
20260902103947 78 201 1.0 3.0 0.00 0.00 0.00 58 1020.1
20260902103931 78 198 0.0 3.0 0.00 0.00 0.00 59 1020.3
20260902103915 78 205 0.0 3.0 0.00 0.00 0.00 60 1020.2
20260902103207 77 207 0.0 3.0 0.00 0.00 0.00 59 1020.4
20260902102844 76 215 2.0 3.0 0.00 0.00 0.00 62 1020.3
20260902102745 76 242 1.0 3.0 0.00 0.00 0.00 62 1020.2
20260902102716 76 205 0.0 3.0 0.00 0.00 0.00 63 1020.2
20260902102644 76 114 0.0 3.0 0.00 0.00 0.00 63 1020.2
20260902102545 77 201 0.0 3.0 0.00 0.00 0.00 63 1020.4
20260902102445 77 200 0.0 3.0 0.00 0.00 0.00 63 1020.1
20260902102340 76 201 0.0 3.0 0.00 0.00 0.00 59 1020.3
20260902102241 76 196 0.0 3.0 0.00 0.00 0.00 60 1020.2
20260902102213 76 198 0.0 3.0 0.00 0.00 0.00 61 1020.2
20260902102143 76 196 0.0 4.0 0.00 0.00 0.00 60 1020.3
20260902102040 76 194 0.0 4.0 0.00 0.00 0.00 61 1020.2
20260902101940 76 223 2.0 4.0 0.00 0.00 0.00 62 1020.4
20260902101841 77 184 0.0 4.0 0.00 0.00 0.00 61 1020.4
20260902101740 77 192 0.0 4.0 0.00 0.00 0.00 62 1020.3
20260902101712 77 201 0.0 6.0 0.00 0.00 0.00 62 1020.3
20260902101641 77 197 0.0 6.0 0.00 0.00 0.00 62 1020.3
20260902101540 77 202 0.0 6.0 0.00 0.00 0.00 61 1020.2
20260902101440 77 201 0.0 6.0 0.00 0.00 0.00 62 1020.2
20260902101340 77 202 0.0 6.0 0.00 0.00 0.00 62 1020.3
20260902101240 77 204 0.0 6.0 0.00 0.00 0.00 61 1020.6
20260902101212 77 208 3.0 6.0 0.00 0.00 0.00 60 1020.6
20260902101140 78 196 1.0 6.0 0.00 0.00 0.00 60 1020.2
20260902101041 78 131 0.0 7.0 0.00 0.00 0.00 59 1020.4
20260902100942 78 214 0.0 7.0 0.00 0.00 0.00 59 1020.4
20260902100841 78 200 0.0 7.0 0.00 0.00 0.00 61 1020.3
20260902100741 78 236 3.0 7.0 0.00 0.00 0.00 60 1020.2
20260902100713 78 234 1.0 7.0 0.00 0.00 0.00 60 1020.2
20260902100641 78 199 0.0 7.0 0.00 0.00 0.00 61 1020.2
20260902100541 78 215 0.0 7.0 0.00 0.00 0.00 60 1020.2
20260902100440 78 217 1.0 7.0 0.00 0.00 0.00 62 1020.3
20260902100419 78 201 0.0 7.0 0.00 0.00 0.00 60 1020.2
20260902100403 78 207 3.0 7.0 0.00 0.00 0.00 58 1020.3
20260902100349 79 274 2.0 7.0 0.00 0.00 0.00 60 1020.3
20260902100340 79 228 4.0 7.0 0.00 0.00 0.00 59 1020.4
20260902095740 79 207 0.0 1.0 0.00 0.00 0.00 60 1020.2
20260902095712 79 183 1.0 1.0 0.00 0.00 0.00 59 1020.2
20260902095641 79 200 0.0 1.0 0.00 0.00 0.00 59 1020.3
20260902095542 78 202 0.0 1.0 0.00 0.00 0.00 61 1020.4
20260902095440 78 200 0.0 2.0 0.00 0.00 0.00 61 1020.3
20260902095340 78 203 0.0 2.0 0.00 0.00 0.00 63 1020.4
20260902095240 78 199 1.0 3.0 0.00 0.00 0.00 62 1020.4
20260902095212 77 199 1.0 3.0 0.00 0.00 0.00 60 1020.4
20260902095140 77 205 0.0 3.0 0.00 0.00 0.00 60 1020.4
20260902095040 77 201 0.0 3.0 0.00 0.00 0.00 62 1020.3
20260902095011 74 218 0.0 3.0 0.00 0.00 0.00 64 1020.3
20260902095003 76 205 0.0 3.0 0.00 0.00 0.00 62 1020.5
20260902094947 75 234 0.0 3.0 0.00 0.00 0.00 62 1020.5
20260902094931 74 200 0.0 3.0 0.00 0.00 0.00 63 1020.3
20260902094640 74 202 0.0 3.0 0.00 0.00 0.00 64 1020.6
20260902094616 74 204 1.0 3.0 0.00 0.00 0.00 65 1020.4
20260902094600 74 222 1.0 3.0 0.00 0.00 0.00 66 1020.4
20260902094241 75 202 0.0 2.0 0.00 0.00 0.00 63 1020.4
20260902094212 75 204 0.0 2.0 0.00 0.00 0.00 62 1020.4
20260902094141 75 203 0.0 2.0 0.00 0.00 0.00 63 1020.4
20260902094041 75 198 0.0 2.0 0.00 0.00 0.00 63 1020.3
20260902093942 76 201 0.0 2.0 0.00 0.00 0.00 65 1020.4
20260902093842 76 200 0.0 2.0 0.00 0.00 0.00 66 1020.3
20260902093741 76 201 0.0 2.0 0.00 0.00 0.00 63 1020.2
20260902093713 76 200 0.0 2.0 0.00 0.00 0.00 63 1020.2
20260902093641 76 203 0.0 2.0 0.00 0.00 0.00 63 1020.5
20260902093528 76 194 0.0 3.0 0.00 0.00 0.00 63 1020.4
20260902093428 76 200 0.0 4.0 0.00 0.00 0.00 63 1020.7
20260902093328 76 202 0.0 4.0 0.00 0.00 0.00 63 1020.4
20260902093251 76 204 0.0 4.0 0.00 0.00 0.00 63 1020.4
20260902093236 76 199 0.0 4.0 0.00 0.00 0.00 64 1020.5
20260902092917 76 201 0.0 4.0 0.00 0.00 0.00 63 1020.6
20260902092817 76 202 0.0 4.0 0.00 0.00 0.00 63 1020.4
20260902092716 75 175 0.0 4.0 0.00 0.00 0.00 62 1020.6
20260902092617 76 225 2.0 4.0 0.00 0.00 0.00 62 1020.6
20260902092552 76 139 1.0 6.0 0.00 0.00 0.00 60 1020.3
20260902092537 76 204 1.0 6.0 0.00 0.00 0.00 60 1020.5
20260902092216 76 199 0.0 6.0 0.00 0.00 0.00 62 1020.7
20260902092116 76 200 0.0 6.0 0.00 0.00 0.00 62 1020.5
20260902092016 76 157 0.0 6.0 0.00 0.00 0.00 62 1020.3
20260902091916 76 203 0.0 6.0 0.00 0.00 0.00 63 1020.5
20260902091817 75 202 0.0 6.0 0.00 0.00 0.00 63 1020.4
20260902091717 75 209 0.0 6.0 0.00 0.00 0.00 63 1020.5
20260902091616 75 199 2.0 6.0 0.00 0.00 0.00 62 1020.3
20260902091518 76 239 3.0 6.0 0.00 0.00 0.00 62 1020.5
20260902091416 76 204 0.0 2.0 0.00 0.00 0.00 63 1020.7
20260902091348 75 201 0.0 2.0 0.00 0.00 0.00 64 1020.6
20260902091326 75 204 0.0 2.0 0.00 0.00 0.00 63 1020.5
20260902091310 76 187 0.0 2.0 0.00 0.00 0.00 63 1020.4
20260902091254 76 198 0.0 2.0 0.00 0.00 0.00 62 1020.6
20260902091019 76 202 0.0 2.0 0.00 0.00 0.00 62 1020.5
20260902090750 75 198 0.0 2.0 0.00 0.00 0.00 64 1020.7
20260902090735 75 218 2.0 2.0 0.00 0.00 0.00 65 1020.8
20260902090719 74 209 1.0 1.0 0.00 0.00 0.00 65 1020.6
20260902090443 74 185 0.0 1.0 0.00 0.00 0.00 65 1020.5
20260902090216 74 151 1.0 1.0 0.00 0.00 0.00 65 1020.7
20260902090116 74 203 0.0 1.0 0.00 0.00 0.00 66 1020.4
20260902090016 74 196 1.0 1.0 0.00 0.00 0.00 68 1020.5
20260902085916 74 200 0.0 1.0 0.00 0.00 0.00 66 1020.6
20260902085816 74 202 0.0 1.0 0.00 0.00 0.00 66 1020.8
20260902085716 74 205 0.0 1.0 0.00 0.00 0.00 67 1020.4
20260902085617 74 202 0.0 1.0 0.00 0.00 0.00 67 1020.6
20260902085517 74 183 0.0 1.0 0.00 0.00 0.00 67 1020.8
20260902085416 74 200 0.0 1.0 0.00 0.00 0.00 67 1020.7
20260902085315 74 200 0.0 1.0 0.00 0.00 0.00 67 1020.6
20260902085216 73 196 0.0 1.0 0.00 0.00 0.00 69 1020.6
20260902085115 73 199 0.0 1.0 0.00 0.00 0.00 69 1020.7
20260902085017 73 199 0.0 1.0 0.00 0.00 0.00 69 1020.9
20260902084959 73 189 1.0 1.0 0.00 0.00 0.00 68 1020.5
20260902084943 72 202 0.0 1.0 0.00 0.00 0.00 68 1020.8
20260902084715 72 207 0.0 0.0 0.00 0.00 0.00 68 1020.6
20260902084250 72 202 0.0 1.0 0.00 0.00 0.00 70 1020.6
20260902084233 72 201 0.0 1.0 0.00 0.00 0.00 71 1020.5
20260902083956 72 198 0.0 1.0 0.00 0.00 0.00 70 1020.7
20260902083940 72 187 0.0 1.0 0.00 0.00 0.00 70 1020.6
20260902083927 72 169 0.0 1.0 0.00 0.00 0.00 70 1020.7
20260902083611 73 153 0.0 4.0 0.00 0.00 0.00 69 1020.8
20260902083511 73 199 0.0 4.0 0.00 0.00 0.00 69 1020.9
20260902083411 73 200 0.0 4.0 0.00 0.00 0.00 69 1020.8
20260902083311 73 202 0.0 4.0 0.00 0.00 0.00 68 1020.7
20260902083244 73 202 0.0 4.0 0.00 0.00 0.00 68 1020.8
20260902083211 73 198 0.0 4.0 0.00 0.00 0.00 68 1020.8
20260902083112 73 200 0.0 4.0 0.00 0.00 0.00 68 1020.9
20260902083012 73 199 0.0 4.0 0.00 0.00 0.00 68 1020.8
20260902082912 73 200 0.0 4.0 0.00 0.00 0.00 68 1020.6
20260902082812 73 203 0.0 4.0 0.00 0.00 0.00 68 1020.7
20260902082743 73 228 2.0 4.0 0.00 0.00 0.00 67 1020.7
20260902082711 73 210 0.0 1.0 0.00 0.00 0.00 68 1020.7
20260902082613 73 202 0.0 1.0 0.00 0.00 0.00 68 1020.9
20260902082515 73 198 0.0 1.0 0.00 0.00 0.00 67 1020.7
20260902082500 73 139 0.0 1.0 0.00 0.00 0.00 66 1020.7
20260902082444 73 200 0.0 1.0 0.00 0.00 0.00 67 1020.8
20260902082431 73 198 0.0 1.0 0.00 0.00 0.00 67 1020.7
20260902082200 73 201 0.0 1.0 0.00 0.00 0.00 68 1020.7
20260902082143 73 199 0.0 1.0 0.00 0.00 0.00 68 1020.8
20260902082128 73 202 0.0 1.0 0.00 0.00 0.00 68 1020.8
20260902081855 72 201 0.0 1.0 0.00 0.00 0.00 69 1020.7
20260902081831 72 202 0.0 1.0 0.00 0.00 0.00 69 1020.7
20260902081512 72 198 0.0 1.0 0.00 0.00 0.00 70 1020.8
20260902081411 72 192 0.0 1.0 0.00 0.00 0.00 70 1021.0
20260902081310 72 203 0.0 1.0 0.00 0.00 0.00 69 1020.7
20260902081243 72 206 0.0 1.0 0.00 0.00 0.00 68 1020.6
20260902081212 72 203 0.0 1.0 0.00 0.00 0.00 68 1020.6
20260902081139 72 214 0.0 1.0 0.00 0.00 0.00 68 1020.8
20260902081124 72 199 0.0 1.0 0.00 0.00 0.00 69 1020.6
20260902081108 72 199 0.0 1.0 0.00 0.00 0.00 70 1020.7
20260902081052 72 199 0.0 2.0 0.00 0.00 0.00 70 1020.6
20260902081039 72 196 0.0 2.0 0.00 0.00 0.00 70 1020.6
20260902080807 73 183 0.0 3.0 0.00 0.00 0.00 68 1020.7
20260902080532 74 198 0.0 3.0 0.00 0.00 0.00 65 1020.6
20260902080243 74 202 0.0 3.0 0.00 0.00 0.00 65 1020.7
20260902080210 74 206 0.0 3.0 0.00 0.00 0.00 66 1020.7
20260902080147 74 164 0.0 3.0 0.00 0.00 0.00 66 1020.8
20260902080131 74 202 0.0 3.0 0.00 0.00 0.00 65 1020.6
20260902075811 74 191 0.0 3.0 0.00 0.00 0.00 63 1020.5
20260902075743 74 191 0.0 3.0 0.00 0.00 0.00 63 1020.5
20260902075659 74 209 0.0 3.0 0.00 0.00 0.00 63 1020.7
20260902075559 75 209 2.0 3.0 0.00 0.00 0.00 63 1020.7
20260902075535 75 205 0.0 3.0 0.00 0.00 0.00 65 1020.5
20260902075518 75 209 0.0 3.0 0.00 0.00 0.00 64 1020.5
20260902075244 75 199 0.0 3.0 0.00 0.00 0.00 64 1020.6
20260902075234 75 200 0.0 3.0 0.00 0.00 0.00 64 1020.5
20260902075218 75 198 0.0 3.0 0.00 0.00 0.00 64 1020.7
20260902074859 74 203 0.0 3.0 0.00 0.00 0.00 64 1020.6
20260902074800 74 200 1.0 3.0 0.00 0.00 0.00 63 1020.6
20260902074743 74 224 0.0 1.0 0.00 0.00 0.00 64 1020.6
20260902074659 74 209 0.0 1.0 0.00 0.00 0.00 64 1020.6
20260902074636 73 201 0.0 1.0 0.00 0.00 0.00 66 1020.4
20260902074628 74 199 0.0 1.0 0.00 0.00 0.00 65 1020.6
20260902074612 74 201 0.0 1.0 0.00 0.00 0.00 65 1020.5
20260902074555 74 206 0.0 1.0 0.00 0.00 0.00 65 1020.5
20260902074331 74 200 0.0 1.0 0.00 0.00 0.00 64 1020.8
20260902074318 74 205 0.0 1.0 0.00 0.00 0.00 64 1020.8
20260902074308 73 193 0.0 1.0 0.00 0.00 0.00 65 1020.7
20260902074252 73 199 0.0 1.0 0.00 0.00 0.00 66 1020.6
20260902074016 73 201 0.0 1.0 0.00 0.00 0.00 66 1020.5
20260902074001 73 201 0.0 1.0 0.00 0.00 0.00 66 1020.4
20260902073701 73 195 0.0 1.0 0.00 0.00 0.00 66 1020.7
20260902073600 73 199 0.0 1.0 0.00 0.00 0.00 65 1020.7
20260902073458 73 198 0.0 1.0 0.00 0.00 0.00 65 1020.5
20260902073359 73 200 0.0 1.0 0.00 0.00 0.00 66 1020.6
20260902073259 73 199 0.0 1.0 0.00 0.00 0.00 66 1020.5
20260902073243 73 199 0.0 1.0 0.00 0.00 0.00 66 1020.5
20260902073159 73 199 0.0 1.0 0.00 0.00 0.00 65 1020.6
20260902073059 73 187 0.0 1.0 0.00 0.00 0.00 66 1020.6
20260902072959 73 203 0.0 1.0 0.00 0.00 0.00 66 1020.7
20260902072859 73 202 0.0 1.0 0.00 0.00 0.00 66 1020.7
20260902072758 73 195 0.0 1.0 0.00 0.00 0.00 66 1020.5
20260902072745 73 205 0.0 1.0 0.00 0.00 0.00 66 1020.5
20260902072659 73 190 0.0 1.0 0.00 0.00 0.00 67 1020.7
20260902072559 73 201 0.0 1.0 0.00 0.00 0.00 67 1020.6
20260902072500 73 195 0.0 0.0 0.00 0.00 0.00 67 1020.5
20260902072400 73 199 0.0 1.0 0.00 0.00 0.00 67 1020.4
20260902072259 72 200 0.0 1.0 0.00 0.00 0.00 67 1020.6
20260902072243 72 198 0.0 1.0 0.00 0.00 0.00 67 1020.6
20260902072200 72 198 0.0 1.0 0.00 0.00 0.00 67 1020.6
20260902072100 72 196 0.0 1.0 0.00 0.00 0.00 68 1020.5
20260902072037 72 199 0.0 1.0 0.00 0.00 0.00 68 1020.5
20260902072021 72 200 0.0 1.0 0.00 0.00 0.00 68 1020.6
20260902071953 72 198 0.0 1.0 0.00 0.00 0.00 68 1020.6
20260902071720 72 200 0.0 1.0 0.00 0.00 0.00 68 1020.3
20260902071359 72 198 0.0 2.0 0.00 0.00 0.00 67 1020.5
20260902071259 72 196 0.0 2.0 0.00 0.00 0.00 69 1020.7
20260902071244 72 196 0.0 2.0 0.00 0.00 0.00 69 1020.7
20260902071200 72 194 0.0 2.0 0.00 0.00 0.00 68 1020.5
20260902071059 71 200 0.0 2.0 0.00 0.00 0.00 68 1020.6
20260902070958 71 196 0.0 2.0 0.00 0.00 0.00 69 1020.5
20260902070859 71 196 0.0 2.0 0.00 0.00 0.00 69 1020.4
20260902070759 71 198 0.0 2.0 0.00 0.00 0.00 70 1020.4
20260902070743 70 198 0.0 2.0 0.00 0.00 0.00 70 1020.4
20260902070658 70 196 0.0 2.0 0.00 0.00 0.00 70 1020.5
20260902070635 70 196 0.0 2.0 0.00 0.00 0.00 71 1020.6
20260902070619 70 196 0.0 2.0 0.00 0.00 0.00 71 1020.6
20260902070342 69 202 0.0 1.0 0.00 0.00 0.00 73 1020.3
20260902070328 69 198 0.0 1.0 0.00 0.00 0.00 73 1020.3
20260902070318 70 203 0.0 1.0 0.00 0.00 0.00 72 1020.7
20260902070024 65 193 0.0 0.0 0.00 0.00 0.00 78 1020.1
20260902070017 70 196 0.0 1.0 0.00 0.00 0.00 71 1020.6
20260902070001 70 198 0.0 1.0 0.00 0.00 0.00 71 1020.6
20260902065932 70 196 0.0 1.0 0.00 0.00 0.00 71 1020.4
20260902065919 70 196 0.0 1.0 0.00 0.00 0.00 72 1020.5
20260902065903 69 196 0.0 1.0 0.00 0.00 0.00 72 1020.5
20260902065419 69 201 0.0 1.0 0.00 0.00 0.00 73 1020.5
20260902065403 69 214 0.0 1.0 0.00 0.00 0.00 73 1020.4
20260902065350 69 201 0.0 1.0 0.00 0.00 0.00 73 1020.4
20260902065339 69 203 0.0 1.0 0.00 0.00 0.00 72 1020.6
20260902065322 69 200 0.0 1.0 0.00 0.00 0.00 72 1020.4
20260902065307 69 202 0.0 1.0 0.00 0.00 0.00 72 1020.3
20260902065250 69 204 0.0 1.0 0.00 0.00 0.00 73 1020.3
20260902065223 69 199 0.0 1.0 0.00 0.00 0.00 73 1020.5
20260902064950 68 201 0.0 1.0 0.00 0.00 0.00 74 1020.4
20260902064934 68 200 0.0 1.0 0.00 0.00 0.00 74 1020.6
20260902064442 67 197 0.0 1.0 0.00 0.00 0.00 75 1020.3
20260902064431 67 204 1.0 1.0 0.00 0.00 0.00 75 1020.6
20260902064416 67 194 0.0 0.0 0.00 0.00 0.00 75 1020.4
20260902064140 67 199 0.0 0.0 0.00 0.00 0.00 76 1020.3
20260902064111 66 202 0.0 0.0 0.00 0.00 0.00 77 1020.4
20260902064059 66 197 0.0 0.0 0.00 0.00 0.00 77 1020.4
20260902063823 66 230 0.0 0.0 0.00 0.00 0.00 77 1020.5
20260902063807 65 197 0.0 0.0 0.00 0.00 0.00 77 1020.5
20260902063320 66 192 0.0 0.0 0.00 0.00 0.00 78 1020.5
20260902062959 66 196 0.0 0.0 0.00 0.00 0.00 77 1020.6
20260902062901 66 194 0.0 0.0 0.00 0.00 0.00 78 1020.5
20260902062759 66 197 0.0 0.0 0.00 0.00 0.00 77 1020.4
20260902062743 66 196 0.0 0.0 0.00 0.00 0.00 77 1020.4
20260902062700 66 181 0.0 0.0 0.00 0.00 0.00 77 1020.5
20260902062559 66 199 0.0 0.0 0.00 0.00 0.00 77 1020.4
20260902062500 66 194 0.0 0.0 0.00 0.00 0.00 76 1020.4
20260902062359 66 192 0.0 0.0 0.00 0.00 0.00 76 1020.4
20260902062259 67 192 0.0 0.0 0.00 0.00 0.00 77 1020.4
20260902062159 67 191 0.0 0.0 0.00 0.00 0.00 75 1020.1
20260902062059 67 193 0.0 0.0 0.00 0.00 0.00 75 1020.3
20260902061959 67 192 0.0 0.0 0.00 0.00 0.00 76 1020.4
20260902061859 67 192 0.0 0.0 0.00 0.00 0.00 76 1020.4
20260902061743 66 192 0.0 0.0 0.00 0.00 0.00 77 1020.0
20260902061711 66 192 0.0 0.0 0.00 0.00 0.00 77 1020.3
20260902061656 66 192 0.0 0.0 0.00 0.00 0.00 77 1020.3
20260902061640 66 192 0.0 0.0 0.00 0.00 0.00 77 1020.3
20260902061625 66 192 0.0 0.0 0.00 0.00 0.00 78 1020.3
20260902061358 66 192 0.0 0.0 0.00 0.00 0.00 78 1020.3
20260902061342 66 193 0.0 0.0 0.00 0.00 0.00 77 1020.3
20260902061327 66 193 0.0 0.0 0.00 0.00 0.00 77 1020.2
20260902060747 66 193 0.0 0.0 0.00 0.00 0.00 78 1020.2
20260902060722 65 193 0.0 0.0 0.00 0.00 0.00 78 1020.4
20260902060706 65 192 0.0 0.0 0.00 0.00 0.00 78 1020.2
20260902060349 65 114 0.0 0.0 0.00 0.00 0.00 79 1020.2
20260902060247 64 193 0.0 0.0 0.00 0.00 0.00 80 1020.1
20260902060148 64 192 0.0 0.0 0.00 0.00 0.00 79 1020.4
20260902060046 64 109 0.0 0.0 0.00 0.00 0.00 80 1020.2
20260902055949 64 195 0.0 0.0 0.00 0.00 0.00 80 1020.2
20260902055848 64 203 0.0 0.0 0.00 0.00 0.00 80 1020.3
20260902055748 64 196 0.0 0.0 0.00 0.00 0.00 81 1020.2
20260902055647 64 195 0.0 0.0 0.00 0.00 0.00 81 1020.1
20260902055547 63 195 0.0 0.0 0.00 0.00 0.00 82 1020.1
20260902055447 63 196 0.0 0.0 0.00 0.00 0.00 82 1020.0
20260902055348 63 199 0.0 0.0 0.00 0.00 0.00 83 1020.2
20260902055326 59 194 0.0 0.0 0.00 0.00 0.00 91 1020.2
20260902055311 62 191 0.0 0.0 0.00 0.00 0.00 84 1020.2
20260902055255 62 194 0.0 0.0 0.00 0.00 0.00 84 1020.1
20260902055240 62 194 0.0 0.0 0.00 0.00 0.00 85 1020.0
20260902055224 61 194 0.0 0.0 0.00 0.00 0.00 86 1020.5
20260902054942 61 194 0.0 0.0 0.00 0.00 0.00 87 1020.1
20260902054925 60 194 0.0 0.0 0.00 0.00 0.00 88 1020.1
20260902054909 60 194 0.0 0.0 0.00 0.00 0.00 89 1020.1
20260902054854 60 194 0.0 0.0 0.00 0.00 0.00 90 1020.2
20260902054838 60 194 0.0 0.0 0.00 0.00 0.00 90 1020.4
20260902054821 59 194 0.0 0.0 0.00 0.00 0.00 91 1020.2
20260902054335 59 194 0.0 0.0 0.00 0.00 0.00 92 1020.1
20260902053850 58 193 0.0 0.0 0.00 0.00 0.00 93 1020.2
20260902053828 58 193 0.0 0.0 0.00 0.00 0.00 93 1020.1
20260902053811 58 193 0.0 0.0 0.00 0.00 0.00 94 1020.3
20260902053547 58 193 0.0 0.0 0.00 0.00 0.00 94 1020.3
20260902053531 58 192 0.0 0.0 0.00 0.00 0.00 94 1020.2
20260902053514 57 193 0.0 0.0 0.00 0.00 0.00 95 1020.5
20260902053457 57 192 0.0 0.0 0.00 0.00 0.00 95 1020.2
20260902053148 57 192 0.0 0.0 0.00 0.00 0.00 95 1020.4
20260902053047 57 192 0.0 0.0 0.00 0.00 0.00 96 1020.2
20260902052947 57 193 0.0 0.0 0.00 0.00 0.00 96 1020.1
20260902052847 56 192 0.0 0.0 0.00 0.00 0.00 96 1020.1
20260902052748 56 192 0.0 0.0 0.00 0.00 0.00 96 1020.2
20260902052723 56 192 0.0 0.0 0.00 0.00 0.00 97 1020.3
20260902052707 56 193 0.0 0.0 0.00 0.00 0.00 97 1020.4
20260902052346 56 193 0.0 0.0 0.00 0.00 0.00 97 1020.0
20260902052247 56 193 0.0 0.0 0.00 0.00 0.00 97 1020.1
20260902052148 56 193 0.0 0.0 0.00 0.00 0.00 98 1020.1
20260902052048 55 193 0.0 0.0 0.00 0.00 0.00 98 1020.1
20260902051947 55 193 0.0 0.0 0.00 0.00 0.00 98 1020.2
20260902051849 55 194 0.0 0.0 0.00 0.00 0.00 98 1020.2
20260902051749 55 194 0.0 0.0 0.00 0.00 0.00 98 1020.3
20260902051647 55 194 0.0 0.0 0.00 0.00 0.00 98 1020.1
20260902051619 55 194 0.0 0.0 0.00 0.00 0.00 98 1020.2
20260902051603 55 194 0.0 0.0 0.00 0.00 0.00 98 1020.4
20260902051547 55 194 0.0 0.0 0.00 0.00 0.00 98 1020.1
20260902051526 54 194 0.0 0.0 0.00 0.00 0.00 98 1020.1
20260902051247 54 194 0.0 0.0 0.00 0.00 0.00 98 1020.0
20260902051231 54 194 0.0 0.0 0.00 0.00 0.00 98 1020.1
20260902051217 54 194 0.0 0.0 0.00 0.00 0.00 98 1020.2
20260902050950 54 194 0.0 0.0 0.00 0.00 0.00 98 1020.3
20260902050919 54 194 0.0 0.0 0.00 0.00 0.00 98 1020.1
20260902050904 54 194 0.0 0.0 0.00 0.00 0.00 98 1020.0
20260902050848 54 194 0.0 0.0 0.00 0.00 0.00 98 1020.1
20260902050604 54 194 0.0 0.0 0.00 0.00 0.00 99 1020.1
20260902050107 54 194 0.0 0.0 0.00 0.00 0.00 99 1020.0
20260902045746 54 194 0.0 0.0 0.00 0.00 0.00 99 1020.1
20260902045721 54 194 0.0 0.0 0.00 0.00 0.00 99 1020.1
20260902045705 54 194 0.0 0.0 0.00 0.00 0.00 99 1020.1
20260902045347 54 194 0.0 0.0 0.00 0.00 0.00 99 1020.0
20260902045247 53 194 0.0 0.0 0.00 0.00 0.00 99 1020.2
20260902045222 53 194 0.0 0.0 0.00 0.00 0.00 99 1020.1
20260902045207 54 194 0.0 0.0 0.00 0.00 0.00 99 1020.2
20260902044932 54 195 0.0 0.0 0.00 0.00 0.00 100 1019.9
20260902044926 53 189 0.0 0.0 0.00 0.00 0.00 100 1020.0
20260902044918 53 194 0.0 0.0 0.00 0.00 0.00 100 1020.2
20260902044856 53 195 0.0 0.0 0.00 0.00 0.00 99 1020.2
20260902044839 54 195 0.0 0.0 0.00 0.00 0.00 100 1020.2
20260902044823 54 195 0.0 0.0 0.00 0.00 0.00 100 1020.0
20260902044808 54 195 0.0 0.0 0.00 0.00 0.00 100 1020.0
20260902044531 54 195 0.0 0.0 0.00 0.00 0.00 100 1019.9
20260902044305 54 195 0.0 0.0 0.00 0.00 0.00 100 1020.3
20260902044250 54 170 0.0 0.0 0.00 0.00 0.00 100 1020.6
20260902044234 54 189 0.0 0.0 0.00 0.00 0.00 100 1020.2
20260902044218 53 189 0.0 0.0 0.00 0.00 0.00 100 1020.1
20260902043646 53 192 0.0 0.0 0.00 0.00 0.00 100 1020.1
20260902043546 53 194 0.0 0.0 0.00 0.00 0.00 100 1020.2
20260902043446 53 194 0.0 0.0 0.00 0.00 0.00 100 1020.0
20260902043347 53 196 0.0 0.0 0.00 0.00 0.00 100 1020.0
20260902043247 52 196 0.0 0.0 0.00 0.00 0.00 100 1020.0
20260902043146 52 196 0.0 0.0 0.00 0.00 0.00 100 1020.1
20260902043124 52 196 0.0 0.0 0.00 0.00 0.00 100 1020.3
20260902043109 52 198 0.0 0.0 0.00 0.00 0.00 100 1020.1
20260902043053 52 198 0.0 0.0 0.00 0.00 0.00 100 1020.2
20260902042826 52 202 0.0 0.0 0.00 0.00 0.00 100 1020.1
20260902042808 52 259 0.0 0.0 0.00 0.00 0.00 100 1020.1
20260902042446 52 266 0.0 0.0 0.00 0.00 0.00 100 1019.8
20260902042428 52 273 0.0 0.0 0.00 0.00 0.00 100 1020.1
20260902042406 51 281 0.0 0.0 0.00 0.00 0.00 100 1020.2
20260902042047 51 195 0.0 0.0 0.00 0.00 0.00 100 1020.0
20260902041946 51 195 0.0 0.0 0.00 0.00 0.00 100 1020.0
20260902041846 51 195 0.0 0.0 0.00 0.00 0.00 100 1020.0
20260902041747 51 196 0.0 0.0 0.00 0.00 0.00 100 1020.0
20260902041646 51 196 0.0 0.0 0.00 0.00 0.00 100 1020.0
20260902041545 51 196 0.0 0.0 0.00 0.00 0.00 100 1019.9
20260902041446 51 196 0.0 0.0 0.00 0.00 0.00 100 1020.1
20260902041346 51 196 0.0 0.0 0.00 0.00 0.00 100 1019.9
20260902041246 51 196 0.0 0.0 0.00 0.00 0.00 100 1020.2
20260902041146 51 196 0.0 0.0 0.00 0.00 0.00 100 1020.1
20260902041046 51 196 0.0 0.0 0.00 0.00 0.00 100 1019.9
20260902040947 51 196 0.0 0.0 0.00 0.00 0.00 100 1019.9
20260902040930 51 196 0.0 0.0 0.00 0.00 0.00 100 1020.1
20260902040908 51 196 0.0 0.0 0.00 0.00 0.00 100 1020.1
20260902040546 51 196 0.0 0.0 0.00 0.00 0.00 100 1020.1
20260902040512 51 196 0.0 0.0 0.00 0.00 0.00 100 1020.0
20260902040456 51 196 0.0 0.0 0.00 0.00 0.00 100 1020.0
20260902040434 51 196 0.0 0.0 0.00 0.00 0.00 100 1019.8
20260902040418 51 196 0.0 0.0 0.00 0.00 0.00 100 1020.2
20260902040144 51 196 0.0 0.0 0.00 0.00 0.00 100 1020.0
20260902040128 51 196 0.0 0.0 0.00 0.00 0.00 100 1019.8
20260902040106 51 196 0.0 0.0 0.00 0.00 0.00 100 1020.2
20260902035556 51 196 0.0 0.0 0.00 0.00 0.00 100 1020.1
20260902035541 51 196 0.0 0.0 0.00 0.00 0.00 100 1020.0
20260902035315 51 196 0.0 0.0 0.00 0.00 0.00 100 1020.0
20260902035300 51 196 0.0 0.0 0.00 0.00 0.00 100 1019.9
20260902035245 51 196 0.0 0.0 0.00 0.00 0.00 100 1019.8
20260902035228 51 196 0.0 0.0 0.00 0.00 0.00 100 1020.0
20260902035213 51 196 0.0 0.0 0.00 0.00 0.00 100 1020.0
20260902035143 51 196 0.0 0.0 0.00 0.00 0.00 100 1019.9
20260902034912 51 196 0.0 0.0 0.00 0.00 0.00 100 1019.9
20260902034857 51 196 0.0 0.0 0.00 0.00 0.00 100 1019.6
20260902034842 52 196 0.0 0.0 0.00 0.00 0.00 100 1019.9
20260902034814 52 196 0.0 0.0 0.00 0.00 0.00 100 1019.8
20260902034531 52 196 0.0 0.0 0.00 0.00 0.00 100 1020.0
20260902033817 51 196 0.0 0.0 0.00 0.00 0.00 100 1019.9
20260902033806 51 196 0.0 0.0 0.00 0.00 0.00 100 1020.0
20260902033447 51 196 0.0 0.0 0.00 0.00 0.00 100 1019.9
20260902033429 52 196 0.0 0.0 0.00 0.00 0.00 100 1020.0
20260902033401 52 196 0.0 0.0 0.00 0.00 0.00 100 1019.9
20260902033046 52 196 0.0 0.0 0.00 0.00 0.00 100 1019.8
20260902033024 52 196 0.0 0.0 0.00 0.00 0.00 100 1019.9
20260902033008 52 196 0.0 0.0 0.00 0.00 0.00 100 1020.0
20260902032937 52 196 0.0 0.0 0.00 0.00 0.00 100 1019.7
20260902032707 52 196 0.0 0.0 0.00 0.00 0.00 100 1019.7
20260902032347 52 196 0.0 0.0 0.00 0.00 0.00 100 1019.9
20260902032233 52 196 0.0 0.0 0.00 0.00 0.00 100 1019.8
20260902032140 52 196 0.0 0.0 0.00 0.00 0.00 100 1019.8
20260902032051 52 196 0.0 0.0 0.00 0.00 0.00 100 1020.0
20260902032035 52 196 0.0 0.0 0.00 0.00 0.00 100 1019.7
20260902032020 52 196 0.0 0.0 0.00 0.00 0.00 100 1019.9
20260902031753 52 196 0.0 0.0 0.00 0.00 0.00 100 1019.8
20260902031738 52 196 0.0 0.0 0.00 0.00 0.00 100 1020.0
20260902031722 52 196 0.0 0.0 0.00 0.00 0.00 100 1019.7
20260902031707 52 196 0.0 0.0 0.00 0.00 0.00 100 1019.9
20260902031651 52 196 0.0 0.0 0.00 0.00 0.00 100 1019.8
20260902031419 52 196 0.0 0.0 0.00 0.00 0.00 100 1019.9
20260902031201 52 196 0.0 0.0 0.00 0.00 0.00 100 1019.9
20260902031155 52 196 0.0 0.0 0.00 0.00 0.00 100 1019.7
20260902031139 52 196 0.0 0.0 0.00 0.00 0.00 100 1019.6
20260902031123 52 196 0.0 0.0 0.00 0.00 0.00 100 1019.7
20260902030859 52 196 0.0 0.0 0.00 0.00 0.00 100 1019.8
20260902030828 52 196 0.0 0.0 0.00 0.00 0.00 100 1019.9
20260902030818 52 196 0.0 0.0 0.00 0.00 0.00 100 1019.8
20260902030802 52 196 0.0 0.0 0.00 0.00 0.00 100 1019.7
20260902030746 52 196 0.0 0.0 0.00 0.00 0.00 100 1020.0
20260902030730 52 196 0.0 0.0 0.00 0.00 0.00 100 1019.8
20260902030459 52 196 0.0 0.0 0.00 0.00 0.00 100 1019.7
20260902030229 52 196 0.0 0.0 0.00 0.00 0.00 100 1020.0
20260902030213 52 196 0.0 0.0 0.00 0.00 0.00 100 1019.9
20260902030157 52 196 0.0 0.0 0.00 0.00 0.00 100 1019.8
20260902030141 52 196 0.0 0.0 0.00 0.00 0.00 100 1019.9
20260902025652 52 196 0.0 0.0 0.00 0.00 0.00 100 1019.9
20260902025636 52 196 0.0 0.0 0.00 0.00 0.00 100 1019.8
20260902025620 52 196 0.0 0.0 0.00 0.00 0.00 100 1020.0
20260902025605 52 196 0.0 0.0 0.00 0.00 0.00 100 1020.0
20260902025033 52 196 0.0 0.0 0.00 0.00 0.00 100 1019.5
20260902024934 52 196 0.0 0.0 0.00 0.00 0.00 100 1019.7
20260902024834 52 196 0.0 0.0 0.00 0.00 0.00 100 1019.8
20260902024757 52 196 0.0 0.0 0.00 0.00 0.00 100 1020.0
20260902024747 52 196 0.0 0.0 0.00 0.00 0.00 100 1019.7
20260902024730 52 196 0.0 0.0 0.00 0.00 0.00 100 1019.8
20260902024715 52 196 0.0 0.0 0.00 0.00 0.00 100 1019.7
20260902024426 52 196 0.0 0.0 0.00 0.00 0.00 100 1019.7
20260902024416 52 196 0.0 0.0 0.00 0.00 0.00 100 1019.9
20260902024359 52 196 0.0 0.0 0.00 0.00 0.00 100 1019.8
20260902024124 52 196 0.0 0.0 0.00 0.00 0.00 100 1019.9
20260902023850 53 196 0.0 0.0 0.00 0.00 0.00 100 1019.7
20260902023613 53 196 0.0 0.0 0.00 0.00 0.00 100 1019.7
20260902023557 52 196 0.0 0.0 0.00 0.00 0.00 100 1019.8
20260902023214 52 196 0.0 0.0 0.00 0.00 0.00 100 1019.9
20260902023129 52 195 0.0 0.0 0.00 0.00 0.00 100 1020.0
20260902023029 52 196 0.0 0.0 0.00 0.00 0.00 100 1019.7
20260902022933 52 196 0.0 0.0 0.00 0.00 0.00 100 1019.8
20260902022929 52 196 0.0 0.0 0.00 0.00 0.00 100 1020.0
20260902022919 52 196 0.0 0.0 0.00 0.00 0.00 100 1019.8
20260902022908 52 196 0.0 0.0 0.00 0.00 0.00 100 1020.1
20260902022837 52 196 0.0 0.0 0.00 0.00 0.00 100 1019.9
20260902022813 52 196 0.0 0.0 0.00 0.00 0.00 100 1020.0
20260902022549 52 196 0.0 0.0 0.00 0.00 0.00 100 1020.0
20260902022534 52 196 0.0 0.0 0.00 0.00 0.00 100 1019.9
20260902022518 52 196 0.0 0.0 0.00 0.00 0.00 100 1020.2
20260902022502 52 196 0.0 0.0 0.00 0.00 0.00 100 1019.8
20260902022236 51 196 0.0 0.0 0.00 0.00 0.00 100 1020.0
20260902022221 51 196 0.0 0.0 0.00 0.00 0.00 100 1019.9